Time,TemperatureF,DewpointF,PressureIn,WindDirection,WindDirectionDegrees,WindSpeedMPH,WindSpeedGustMPH,Humidity,HourlyPrecipIn,Conditions,Clouds,dailyrainin,SoftwareType,DateUTC
2013-02-06 00:01:00,40.9,34.2,30.12,NW,309,5.0,9.0,77,0.00,,,0.00,Wunderground v.1.15,2013-02-06 05:01:00,
2013-02-06 00:02:00,40.9,34.2,30.12,North,360,5.0,9.0,77,0.00,,,0.00,Wunderground v.1.15,2013-02-06 05:02:00,
2013-02-06 00:03:00,40.9,34.2,30.12,NNW,348,5.0,9.0,77,0.00,,,0.00,Wunderground v.1.15,2013-02-06 05:03:00,
2013-02-06 00:06:00,40.7,34.0,30.13,NNW,333,5.0,9.0,77,0.00,,,0.00,Wunderground v.1.15,2013-02-06 05:06:00,
2013-02-06 00:09:00,40.6,34.0,30.13,North,349,5.0,9.0,77,0.00,,,0.00,Wunderground v.1.15,2013-02-06 05:09:00,
2013-02-06 00:10:00,40.6,34.3,30.13,NNW,334,4.0,9.0,78,0.00,,,0.00,Wunderground v.1.15,2013-02-06 05:10:00,
2013-02-06 00:13:00,40.5,34.2,30.13,NNW,338,4.0,9.0,78,0.00,,,0.00,Wunderground v.1.15,2013-02-06 05:13:00,
2013-02-06 00:14:00,40.4,34.1,30.13,NNW,344,4.0,9.0,78,0.00,,,0.00,Wunderground v.1.15,2013-02-06 05:14:00,
2013-02-06 00:19:00,40.3,34.0,30.13,NNW,339,3.0,9.0,78,0.00,,,0.00,Wunderground v.1.15,2013-02-06 05:19:00,
2013-02-06 00:20:00,40.3,34.0,30.13,NNW,327,3.0,9.0,78,0.00,,,0.00,Wunderground v.1.15,2013-02-06 05:20:00,
2013-02-06 00:21:00,40.3,34.0,30.13,NNW,340,3.0,3.0,78,0.00,,,0.00,Wunderground v.1.15,2013-02-06 05:21:00,
2013-02-06 00:23:00,40.2,33.9,30.13,NW,307,2.0,9.0,78,0.00,,,0.00,Wunderground v.1.15,2013-02-06 05:23:00,
2013-02-06 00:26:00,40.0,33.7,30.13,North,5,2.0,9.0,78,0.00,,,0.00,Wunderground v.1.15,2013-02-06 05:26:00,
2013-02-06 00:27:00,40.0,33.7,30.14,North,355,2.0,9.0,78,0.00,,,0.00,Wunderground v.1.15,2013-02-06 05:27:00,
2013-02-06 00:28:00,40.0,33.7,30.14,North,355,1.0,9.0,78,0.00,,,0.00,Wunderground v.1.15,2013-02-06 05:28:00,
2013-02-06 00:31:00,39.9,33.9,30.14,North,355,1.0,1.0,79,0.00,,,0.00,Wunderground v.1.15,2013-02-06 05:31:00,
2013-02-06 00:32:00,39.8,33.8,30.14,North,355,1.0,9.0,79,0.00,,,0.00,Wunderground v.1.15,2013-02-06 05:32:00,
2013-02-06 00:34:00,39.7,33.7,30.14,North,360,1.0,9.0,79,0.00,,,0.00,Wunderground v.1.15,2013-02-06 05:34:00,
2013-02-06 00:38:00,39.7,33.7,30.14,NNW,336,1.0,9.0,79,0.00,,,0.00,Wunderground v.1.15,2013-02-06 05:38:00,
2013-02-06 00:39:00,39.6,33.6,30.14,NNW,336,1.0,9.0,79,0.00,,,0.00,Wunderground v.1.15,2013-02-06 05:39:00,
2013-02-06 00:42:00,39.6,33.6,30.14,NW,318,1.0,2.0,79,0.00,,,0.00,Wunderground v.1.15,2013-02-06 05:42:00,
2013-02-06 00:43:00,39.5,33.5,30.14,NW,318,1.0,9.0,79,0.00,,,0.00,Wunderground v.1.15,2013-02-06 05:43:00,
2013-02-06 00:44:00,39.5,33.5,30.14,NNW,335,1.0,9.0,79,0.00,,,0.00,Wunderground v.1.15,2013-02-06 05:44:00,
2013-02-06 00:45:00,39.4,33.4,30.14,NNW,338,1.0,9.0,79,0.00,,,0.00,Wunderground v.1.15,2013-02-06 05:45:00,
2013-02-06 00:48:00,39.4,33.4,30.14,NNW,338,0.0,9.0,79,0.00,,,0.00,Wunderground v.1.15,2013-02-06 05:48:00,
2013-02-06 00:50:00,39.3,33.6,30.14,NNW,338,0.0,9.0,80,0.00,,,0.00,Wunderground v.1.15,2013-02-06 05:50:00,
2013-02-06 00:51:00,39.3,33.6,30.14,NNW,338,0.0,9.0,80,0.00,,,0.00,Wunderground v.1.15,2013-02-06 05:51:00,
2013-02-06 00:53:00,39.3,33.6,30.14,NNW,338,0.0,9.0,80,0.00,,,0.00,Wunderground v.1.15,2013-02-06 05:53:00,
2013-02-06 00:55:00,39.2,33.5,30.14,NNW,338,0.0,9.0,80,0.00,,,0.00,Wunderground v.1.15,2013-02-06 05:55:00,
2013-02-06 00:56:00,39.2,33.5,30.14,NNW,338,0.0,9.0,80,0.00,,,0.00,Wunderground v.1.15,2013-02-06 05:56:00,
2013-02-06 00:57:00,39.2,33.5,30.14,NNW,338,0.0,9.0,80,0.00,,,0.00,Wunderground v.1.15,2013-02-06 05:57:00,
2013-02-06 01:01:00,39.1,33.5,30.14,NNW,338,0.0,9.0,80,0.00,,,0.00,Wunderground v.1.15,2013-02-06 06:01:00,
2013-02-06 01:02:00,39.0,33.4,30.14,NNW,338,0.0,9.0,80,0.00,,,0.00,Wunderground v.1.15,2013-02-06 06:02:00,
2013-02-06 01:07:00,38.9,33.3,30.14,NNW,338,0.0,9.0,80,0.00,,,0.00,Wunderground v.1.15,2013-02-06 06:07:00,
2013-02-06 01:09:00,38.8,33.2,30.14,NNW,338,0.0,9.0,80,0.00,,,0.00,Wunderground v.1.15,2013-02-06 06:09:00,
2013-02-06 01:11:00,38.8,33.2,30.15,NNW,338,0.0,9.0,80,0.00,,,0.00,Wunderground v.1.15,2013-02-06 06:11:00,
2013-02-06 01:14:00,38.6,33.3,30.15,NNW,338,0.0,9.0,81,0.00,,,0.00,Wunderground v.1.15,2013-02-06 06:14:00,
2013-02-06 01:16:00,38.6,33.3,30.15,NNW,338,0.0,9.0,81,0.00,,,0.00,Wunderground v.1.15,2013-02-06 06:16:00,
2013-02-06 01:21:00,38.6,33.3,30.15,NNW,338,0.0,9.0,81,0.00,,,0.00,Wunderground v.1.15,2013-02-06 06:21:00,
2013-02-06 01:24:00,38.6,33.3,30.15,NNW,338,0.0,9.0,81,0.00,,,0.00,Wunderground v.1.15,2013-02-06 06:24:00,
2013-02-06 01:27:00,38.6,33.3,30.15,NNW,338,0.0,9.0,81,0.00,,,0.00,Wunderground v.1.15,2013-02-06 06:27:00,
2013-02-06 01:28:00,38.6,33.3,30.15,NNW,338,0.0,9.0,81,0.00,,,0.00,Wunderground v.1.15,2013-02-06 06:28:00,
2013-02-06 01:31:00,38.6,33.3,30.15,NNW,338,0.0,9.0,81,0.00,,,0.00,Wunderground v.1.15,2013-02-06 06:31:00,
2013-02-06 01:32:00,38.5,33.2,30.15,NNW,338,0.0,9.0,81,0.00,,,0.00,Wunderground v.1.15,2013-02-06 06:32:00,
2013-02-06 01:36:00,38.5,33.2,30.15,NNW,338,0.0,9.0,81,0.00,,,0.00,Wunderground v.1.15,2013-02-06 06:36:00,
2013-02-06 01:39:00,38.4,33.1,30.15,NNW,338,0.0,9.0,81,0.00,,,0.00,Wunderground v.1.15,2013-02-06 06:39:00,
2013-02-06 01:41:00,38.3,33.0,30.15,NNW,338,0.0,9.0,81,0.00,,,0.00,Wunderground v.1.15,2013-02-06 06:41:00,
2013-02-06 01:42:00,38.4,33.1,30.15,NNW,338,0.0,9.0,81,0.00,,,0.00,Wunderground v.1.15,2013-02-06 06:42:00,
2013-02-06 01:46:00,38.3,33.3,30.15,NNW,338,0.0,9.0,82,0.00,,,0.00,Wunderground v.1.15,2013-02-06 06:46:00,
2013-02-06 01:49:00,38.2,33.2,30.15,NNW,338,0.0,9.0,82,0.00,,,0.00,Wunderground v.1.15,2013-02-06 06:49:00,
2013-02-06 01:52:00,38.2,33.2,30.15,NNW,338,0.0,9.0,82,0.00,,,0.00,Wunderground v.1.15,2013-02-06 06:52:00,
2013-02-06 01:54:00,38.1,33.1,30.15,NNW,338,0.0,9.0,82,0.00,,,0.00,Wunderground v.1.15,2013-02-06 06:54:00,
2013-02-06 01:55:00,38.1,33.1,30.15,NNW,338,0.0,9.0,82,0.00,,,0.00,Wunderground v.1.15,2013-02-06 06:55:00,
2013-02-06 02:01:00,37.9,32.9,30.15,NNW,338,0.0,9.0,82,0.00,,,0.00,Wunderground v.1.15,2013-02-06 07:01:00,
2013-02-06 02:02:00,37.9,32.9,30.15,NNW,338,0.0,9.0,82,0.00,,,0.00,Wunderground v.1.15,2013-02-06 07:02:00,
2013-02-06 02:06:00,37.9,33.2,30.16,NNW,338,0.0,9.0,83,0.00,,,0.00,Wunderground v.1.15,2013-02-06 07:06:00,
2013-02-06 02:07:00,38.0,33.3,30.16,NNW,338,0.0,9.0,83,0.00,,,0.00,Wunderground v.1.15,2013-02-06 07:07:00,
2013-02-06 02:09:00,38.0,33.3,30.16,NNW,338,0.0,9.0,83,0.00,,,0.00,Wunderground v.1.15,2013-02-06 07:09:00,
2013-02-06 02:12:00,38.1,33.1,30.16,NNW,338,0.0,9.0,82,0.00,,,0.00,Wunderground v.1.15,2013-02-06 07:12:00,
2013-02-06 02:13:00,38.0,33.0,30.16,NNW,338,0.0,9.0,82,0.00,,,0.00,Wunderground v.1.15,2013-02-06 07:13:00,
2013-02-06 02:16:00,38.0,33.0,30.16,NNW,338,0.0,9.0,82,0.00,,,0.00,Wunderground v.1.15,2013-02-06 07:16:00,
2013-02-06 02:17:00,37.9,32.9,30.16,NNW,338,0.0,9.0,82,0.00,,,0.00,Wunderground v.1.15,2013-02-06 07:17:00,
2013-02-06 02:20:00,37.8,32.8,30.16,NNW,338,0.0,9.0,82,0.00,,,0.00,Wunderground v.1.15,2013-02-06 07:20:00,
2013-02-06 02:22:00,37.8,33.1,30.16,NNW,338,0.0,9.0,83,0.00,,,0.00,Wunderground v.1.15,2013-02-06 07:22:00,
2013-02-06 02:23:00,37.7,33.0,30.16,NNW,338,0.0,9.0,83,0.00,,,0.00,Wunderground v.1.15,2013-02-06 07:23:00,
2013-02-06 02:26:00,37.5,32.8,30.16,NNW,338,0.0,9.0,83,0.00,,,0.00,Wunderground v.1.15,2013-02-06 07:26:00,
2013-02-06 02:27:00,37.4,32.7,30.16,NNW,338,0.0,9.0,83,0.00,,,0.00,Wunderground v.1.15,2013-02-06 07:27:00,
2013-02-06 02:31:00,37.3,32.9,30.17,NNW,338,0.0,9.0,84,0.00,,,0.00,Wunderground v.1.15,2013-02-06 07:31:00,
2013-02-06 02:32:00,37.3,32.9,30.17,NNW,338,0.0,9.0,84,0.00,,,0.00,Wunderground v.1.15,2013-02-06 07:32:00,
2013-02-06 02:34:00,37.3,32.9,30.17,NNW,338,0.0,9.0,84,0.00,,,0.00,Wunderground v.1.15,2013-02-06 07:34:00,
2013-02-06 02:38:00,37.3,32.9,30.17,NNW,338,0.0,9.0,84,0.00,,,0.00,Wunderground v.1.15,2013-02-06 07:38:00,
2013-02-06 02:39:00,37.3,32.9,30.17,NNW,338,0.0,9.0,84,0.00,,,0.00,Wunderground v.1.15,2013-02-06 07:39:00,
2013-02-06 02:40:00,37.3,32.9,30.17,NNW,338,0.0,9.0,84,0.00,,,0.00,Wunderground v.1.15,2013-02-06 07:40:00,
2013-02-06 02:41:00,37.3,32.9,30.17,NNW,338,0.0,9.0,84,0.00,,,0.00,Wunderground v.1.15,2013-02-06 07:41:00,
2013-02-06 02:44:00,37.3,32.9,30.17,NNW,338,0.0,9.0,84,0.00,,,0.00,Wunderground v.1.15,2013-02-06 07:44:00,
2013-02-06 02:46:00,37.2,32.8,30.17,NNW,338,0.0,9.0,84,0.00,,,0.00,Wunderground v.1.15,2013-02-06 07:46:00,
2013-02-06 02:47:00,37.2,32.8,30.17,NNW,338,0.0,9.0,84,0.00,,,0.00,Wunderground v.1.15,2013-02-06 07:47:00,
2013-02-06 02:50:00,37.0,32.6,30.17,NNW,338,0.0,9.0,84,0.00,,,0.00,Wunderground v.1.15,2013-02-06 07:50:00,
2013-02-06 02:53:00,36.6,32.2,30.17,NNW,338,0.0,9.0,84,0.00,,,0.00,Wunderground v.1.15,2013-02-06 07:53:00,
2013-02-06 02:56:00,36.5,32.4,30.17,NNW,338,0.0,9.0,85,0.00,,,0.00,Wunderground v.1.15,2013-02-06 07:56:00,
2013-02-06 02:57:00,36.5,32.4,30.17,NNW,338,0.0,9.0,85,0.00,,,0.00,Wunderground v.1.15,2013-02-06 07:57:00,
2013-02-06 03:01:00,36.4,32.3,30.18,NNW,338,0.0,9.0,85,0.00,,,0.00,Wunderground v.1.15,2013-02-06 08:01:00,
2013-02-06 03:03:00,36.4,32.6,30.18,NNW,338,0.0,9.0,86,0.00,,,0.00,Wunderground v.1.15,2013-02-06 08:03:00,
2013-02-06 03:04:00,36.4,32.6,30.18,NNW,338,0.0,9.0,86,0.00,,,0.00,Wunderground v.1.15,2013-02-06 08:04:00,
2013-02-06 03:06:00,36.4,32.6,30.18,NNW,338,0.0,9.0,86,0.00,,,0.00,Wunderground v.1.15,2013-02-06 08:06:00,
2013-02-06 03:09:00,36.6,32.8,30.18,NNW,338,0.0,9.0,86,0.00,,,0.00,Wunderground v.1.15,2013-02-06 08:09:00,
2013-02-06 03:10:00,36.7,32.9,30.18,NNW,338,0.0,9.0,86,0.00,,,0.00,Wunderground v.1.15,2013-02-06 08:10:00,
2013-02-06 03:14:00,36.9,32.8,30.18,NNW,338,0.0,9.0,85,0.00,,,0.00,Wunderground v.1.15,2013-02-06 08:14:00,
2013-02-06 03:15:00,37.0,32.9,30.18,NNW,338,0.0,9.0,85,0.00,,,0.00,Wunderground v.1.15,2013-02-06 08:15:00,
2013-02-06 03:16:00,36.9,32.8,30.18,NNW,338,0.0,9.0,85,0.00,,,0.00,Wunderground v.1.15,2013-02-06 08:16:00,
2013-02-06 03:19:00,36.8,32.4,30.18,NNW,338,0.0,9.0,84,0.00,,,0.00,Wunderground v.1.15,2013-02-06 08:19:00,
2013-02-06 03:23:00,36.4,32.3,30.18,NNW,338,0.0,9.0,85,0.00,,,0.00,Wunderground v.1.15,2013-02-06 08:23:00,
2013-02-06 03:25:00,36.3,32.2,30.18,NNW,338,0.0,9.0,85,0.00,,,0.00,Wunderground v.1.15,2013-02-06 08:25:00,
2013-02-06 03:26:00,36.3,32.2,30.18,NNW,338,0.0,9.0,85,0.00,,,0.00,Wunderground v.1.15,2013-02-06 08:26:00,
2013-02-06 03:27:00,36.3,32.2,30.18,NNW,338,0.0,9.0,85,0.00,,,0.00,Wunderground v.1.15,2013-02-06 08:27:00,
2013-02-06 03:31:00,36.2,32.4,30.18,NNW,338,0.0,9.0,86,0.00,,,0.00,Wunderground v.1.15,2013-02-06 08:31:00,
2013-02-06 03:32:00,36.2,32.4,30.18,NNW,338,0.0,9.0,86,0.00,,,0.00,Wunderground v.1.15,2013-02-06 08:32:00,
2013-02-06 03:36:00,36.4,32.6,30.18,NNW,338,0.0,9.0,86,0.00,,,0.00,Wunderground v.1.15,2013-02-06 08:36:00,
2013-02-06 03:37:00,36.4,32.6,30.18,NNW,338,0.0,9.0,86,0.00,,,0.00,Wunderground v.1.15,2013-02-06 08:37:00,
2013-02-06 03:40:00,36.5,32.4,30.18,NNW,338,0.0,9.0,85,0.00,,,0.00,Wunderground v.1.15,2013-02-06 08:40:00,
2013-02-06 03:41:00,36.5,32.4,30.18,NNW,338,0.0,9.0,85,0.00,,,0.00,Wunderground v.1.15,2013-02-06 08:41:00,
2013-02-06 03:42:00,36.4,32.3,30.18,NNW,338,0.0,9.0,85,0.00,,,0.00,Wunderground v.1.15,2013-02-06 08:42:00,
2013-02-06 03:47:00,36.1,32.0,30.18,NNW,338,0.0,9.0,85,0.00,,,0.00,Wunderground v.1.15,2013-02-06 08:47:00,
2013-02-06 03:48:00,36.0,32.2,30.18,NNW,338,0.0,9.0,86,0.00,,,0.00,Wunderground v.1.15,2013-02-06 08:48:00,
2013-02-06 03:50:00,36.0,32.2,30.18,NNW,338,0.0,9.0,86,0.00,,,0.00,Wunderground v.1.15,2013-02-06 08:50:00,
2013-02-06 03:52:00,36.0,32.2,30.18,NNW,338,0.0,9.0,86,0.00,,,0.00,Wunderground v.1.15,2013-02-06 08:52:00,
2013-02-06 03:54:00,36.0,32.2,30.18,NNW,338,0.0,9.0,86,0.00,,,0.00,Wunderground v.1.15,2013-02-06 08:54:00,
2013-02-06 03:55:00,35.9,32.1,30.18,NNW,338,0.0,9.0,86,0.00,,,0.00,Wunderground v.1.15,2013-02-06 08:55:00,
2013-02-06 03:58:00,35.8,32.0,30.19,NNW,338,0.0,9.0,86,0.00,,,0.00,Wunderground v.1.15,2013-02-06 08:58:00,
2013-02-06 04:01:00,35.8,32.0,30.19,NNW,338,0.0,9.0,86,0.00,,,0.00,Wunderground v.1.15,2013-02-06 09:01:00,
2013-02-06 04:02:00,35.7,31.9,30.19,NNW,338,0.0,9.0,86,0.00,,,0.00,Wunderground v.1.15,2013-02-06 09:02:00,
2013-02-06 04:04:00,35.7,32.2,30.19,NNW,338,0.0,9.0,87,0.00,,,0.00,Wunderground v.1.15,2013-02-06 09:04:00,
2013-02-06 04:05:00,35.6,32.1,30.19,NNW,338,0.0,9.0,87,0.00,,,0.00,Wunderground v.1.15,2013-02-06 09:05:00,
2013-02-06 04:10:00,35.5,32.0,30.19,NNW,338,0.0,9.0,87,0.00,,,0.00,Wunderground v.1.15,2013-02-06 09:10:00,
2013-02-06 04:11:00,35.4,31.9,30.19,NNW,338,0.0,9.0,87,0.00,,,0.00,Wunderground v.1.15,2013-02-06 09:11:00,
2013-02-06 04:13:00,35.3,31.8,30.20,NNW,338,0.0,9.0,87,0.00,,,0.00,Wunderground v.1.15,2013-02-06 09:13:00,
2013-02-06 04:17:00,35.3,32.1,30.20,NNW,338,0.0,9.0,88,0.00,,,0.00,Wunderground v.1.15,2013-02-06 09:17:00,
2013-02-06 04:18:00,35.2,31.7,30.19,NNW,338,0.0,9.0,87,0.00,,,0.00,Wunderground v.1.15,2013-02-06 09:18:00,
2013-02-06 04:21:00,35.2,32.0,30.20,NNW,338,0.0,9.0,88,0.00,,,0.00,Wunderground v.1.15,2013-02-06 09:21:00,
2013-02-06 04:22:00,35.2,32.0,30.20,NNW,338,0.0,9.0,88,0.00,,,0.00,Wunderground v.1.15,2013-02-06 09:22:00,
2013-02-06 04:24:00,35.2,32.0,30.20,NNW,338,0.0,9.0,88,0.00,,,0.00,Wunderground v.1.15,2013-02-06 09:24:00,
2013-02-06 04:27:00,35.1,31.9,30.20,NNW,338,0.0,9.0,88,0.00,,,0.00,Wunderground v.1.15,2013-02-06 09:27:00,
2013-02-06 04:28:00,35.1,31.9,30.20,NNW,338,0.0,9.0,88,0.00,,,0.00,Wunderground v.1.15,2013-02-06 09:28:00,
2013-02-06 04:32:00,35.0,31.8,30.20,WNW,289,0.0,9.0,88,0.00,,,0.00,Wunderground v.1.15,2013-02-06 09:32:00,
2013-02-06 04:33:00,34.9,31.7,30.21,WNW,289,0.0,9.0,88,0.00,,,0.00,Wunderground v.1.15,2013-02-06 09:33:00,
2013-02-06 04:35:00,34.9,31.7,30.21,WNW,289,0.0,9.0,88,0.00,,,0.00,Wunderground v.1.15,2013-02-06 09:35:00,
2013-02-06 04:37:00,34.8,31.6,30.21,WNW,289,0.0,9.0,88,0.00,,,0.00,Wunderground v.1.15,2013-02-06 09:37:00,
2013-02-06 04:39:00,34.8,31.9,30.21,WNW,289,0.0,9.0,89,0.00,,,0.00,Wunderground v.1.15,2013-02-06 09:39:00,
2013-02-06 04:40:00,34.9,32.0,30.21,WNW,289,0.0,9.0,89,0.00,,,0.00,Wunderground v.1.15,2013-02-06 09:40:00,
2013-02-06 04:43:00,34.9,32.0,30.21,WNW,289,0.0,9.0,89,0.00,,,0.00,Wunderground v.1.15,2013-02-06 09:43:00,
2013-02-06 04:44:00,34.9,31.7,30.21,WNW,289,0.0,9.0,88,0.00,,,0.00,Wunderground v.1.15,2013-02-06 09:44:00,
2013-02-06 04:45:00,34.9,31.7,30.21,WNW,289,0.0,9.0,88,0.00,,,0.00,Wunderground v.1.15,2013-02-06 09:45:00,
2013-02-06 04:50:00,34.8,31.6,30.22,WNW,289,0.0,9.0,88,0.00,,,0.00,Wunderground v.1.15,2013-02-06 09:50:00,
2013-02-06 04:51:00,34.7,31.5,30.22,WNW,289,0.0,9.0,88,0.00,,,0.00,Wunderground v.1.15,2013-02-06 09:51:00,
2013-02-06 04:52:00,34.7,31.5,30.22,WNW,289,0.0,9.0,88,0.00,,,0.00,Wunderground v.1.15,2013-02-06 09:52:00,
2013-02-06 04:56:00,34.8,31.9,30.22,WNW,289,0.0,9.0,89,0.00,,,0.00,Wunderground v.1.15,2013-02-06 09:56:00,
2013-02-06 04:57:00,34.8,31.9,30.22,WNW,289,0.0,9.0,89,0.00,,,0.00,Wunderground v.1.15,2013-02-06 09:57:00,
2013-02-06 05:01:00,34.7,31.5,30.22,WNW,289,0.0,9.0,88,0.00,,,0.00,Wunderground v.1.15,2013-02-06 10:01:00,
2013-02-06 05:02:00,34.6,31.4,30.22,WNW,289,0.0,9.0,88,0.00,,,0.00,Wunderground v.1.15,2013-02-06 10:02:00,
2013-02-06 05:03:00,34.6,31.4,30.22,WNW,289,0.0,9.0,88,0.00,,,0.00,Wunderground v.1.15,2013-02-06 10:03:00,
2013-02-06 05:07:00,34.3,31.1,30.22,WNW,289,0.0,9.0,88,0.00,,,0.00,Wunderground v.1.15,2013-02-06 10:07:00,
2013-02-06 05:09:00,34.3,31.4,30.22,WNW,289,0.0,9.0,89,0.00,,,0.00,Wunderground v.1.15,2013-02-06 10:09:00,
2013-02-06 05:11:00,34.2,31.3,30.22,WNW,289,0.0,9.0,89,0.00,,,0.00,Wunderground v.1.15,2013-02-06 10:11:00,
2013-02-06 05:12:00,34.2,31.3,30.22,WNW,289,0.0,9.0,89,0.00,,,0.00,Wunderground v.1.15,2013-02-06 10:12:00,
2013-02-06 05:15:00,34.1,31.2,30.22,WNW,289,0.0,9.0,89,0.00,,,0.00,Wunderground v.1.15,2013-02-06 10:15:00,
2013-02-06 05:17:00,34.0,31.1,30.22,WNW,289,0.0,9.0,89,0.00,,,0.00,Wunderground v.1.15,2013-02-06 10:17:00,
2013-02-06 05:20:00,33.9,31.3,30.23,WNW,289,0.0,9.0,90,0.00,,,0.00,Wunderground v.1.15,2013-02-06 10:20:00,
2013-02-06 05:21:00,33.9,31.3,30.23,WNW,289,0.0,9.0,90,0.00,,,0.00,Wunderground v.1.15,2013-02-06 10:21:00,
2013-02-06 05:22:00,33.9,31.3,30.22,WNW,289,0.0,9.0,90,0.00,,,0.00,Wunderground v.1.15,2013-02-06 10:22:00,
2013-02-06 05:26:00,33.9,31.3,30.22,WNW,289,0.0,9.0,90,0.00,,,0.00,Wunderground v.1.15,2013-02-06 10:26:00,
2013-02-06 05:28:00,33.9,31.3,30.23,WNW,289,0.0,9.0,90,0.00,,,0.00,Wunderground v.1.15,2013-02-06 10:28:00,
2013-02-06 05:30:00,33.9,31.3,30.23,WNW,289,0.0,9.0,90,0.00,,,0.00,Wunderground v.1.15,2013-02-06 10:30:00,
2013-02-06 05:31:00,33.9,31.3,30.23,WNW,289,0.0,9.0,90,0.00,,,0.00,Wunderground v.1.15,2013-02-06 10:31:00,
2013-02-06 05:35:00,33.9,31.3,30.23,WNW,289,0.0,9.0,90,0.00,,,0.00,Wunderground v.1.15,2013-02-06 10:35:00,
2013-02-06 05:36:00,33.9,31.3,30.23,WNW,289,0.0,9.0,90,0.00,,,0.00,Wunderground v.1.15,2013-02-06 10:36:00,
2013-02-06 05:37:00,33.9,31.3,30.23,WNW,289,0.0,9.0,90,0.00,,,0.00,Wunderground v.1.15,2013-02-06 10:37:00,
2013-02-06 05:40:00,33.9,31.3,30.23,WNW,289,0.0,9.0,90,0.00,,,0.00,Wunderground v.1.15,2013-02-06 10:40:00,
2013-02-06 05:41:00,33.9,31.3,30.23,WNW,289,0.0,9.0,90,0.00,,,0.00,Wunderground v.1.15,2013-02-06 10:41:00,
2013-02-06 05:43:00,33.8,31.2,30.23,WNW,289,0.0,9.0,90,0.00,,,0.00,Wunderground v.1.15,2013-02-06 10:43:00,
2013-02-06 05:46:00,33.7,31.1,30.23,WNW,289,0.0,9.0,90,0.00,,,0.00,Wunderground v.1.15,2013-02-06 10:46:00,
2013-02-06 05:49:00,33.6,31.3,30.23,WNW,289,0.0,9.0,91,0.00,,,0.00,Wunderground v.1.15,2013-02-06 10:49:00,
2013-02-06 05:50:00,33.6,31.0,30.23,WNW,289,0.0,9.0,90,0.00,,,0.00,Wunderground v.1.15,2013-02-06 10:50:00,
2013-02-06 05:53:00,33.6,31.3,30.23,WNW,289,0.0,9.0,91,0.00,,,0.00,Wunderground v.1.15,2013-02-06 10:53:00,
2013-02-06 05:54:00,33.6,31.3,30.23,WNW,289,0.0,9.0,91,0.00,,,0.00,Wunderground v.1.15,2013-02-06 10:54:00,
2013-02-06 05:57:00,33.6,31.3,30.23,WNW,289,0.0,9.0,91,0.00,,,0.00,Wunderground v.1.15,2013-02-06 10:57:00,
2013-02-06 05:59:00,33.6,31.3,30.23,WNW,289,0.0,9.0,91,0.00,,,0.00,Wunderground v.1.15,2013-02-06 10:59:00,
2013-02-06 06:02:00,33.5,30.9,30.24,WNW,289,0.0,9.0,90,0.00,,,0.00,Wunderground v.1.15,2013-02-06 11:02:00,
2013-02-06 06:04:00,33.3,30.7,30.24,WNW,289,0.0,9.0,90,0.00,,,0.00,Wunderground v.1.15,2013-02-06 11:04:00,
2013-02-06 06:06:00,33.1,30.5,30.24,WNW,289,0.0,9.0,90,0.00,,,0.00,Wunderground v.1.15,2013-02-06 11:06:00,
2013-02-06 06:07:00,33.1,30.8,30.24,WNW,289,0.0,9.0,91,0.00,,,0.00,Wunderground v.1.15,2013-02-06 11:07:00,
2013-02-06 06:08:00,33.0,30.7,30.24,WNW,289,0.0,9.0,91,0.00,,,0.00,Wunderground v.1.15,2013-02-06 11:08:00,
2013-02-06 06:11:00,33.1,30.8,30.24,WNW,289,0.0,9.0,91,0.00,,,0.00,Wunderground v.1.15,2013-02-06 11:11:00,
2013-02-06 06:14:00,33.1,30.8,30.24,WNW,289,0.0,9.0,91,0.00,,,0.00,Wunderground v.1.15,2013-02-06 11:14:00,
2013-02-06 06:17:00,33.1,31.0,30.24,WNW,289,0.0,9.0,92,0.00,,,0.00,Wunderground v.1.15,2013-02-06 11:17:00,
2013-02-06 06:18:00,33.1,31.0,30.24,WNW,289,0.0,9.0,92,0.00,,,0.00,Wunderground v.1.15,2013-02-06 11:18:00,
2013-02-06 06:19:00,33.1,31.0,30.24,WNW,289,0.0,9.0,92,0.00,,,0.00,Wunderground v.1.15,2013-02-06 11:19:00,
2013-02-06 06:24:00,32.9,30.6,30.24,WNW,289,0.0,9.0,91,0.00,,,0.00,Wunderground v.1.15,2013-02-06 11:24:00,
2013-02-06 06:26:00,33.0,30.7,30.24,WNW,289,0.0,9.0,91,0.00,,,0.00,Wunderground v.1.15,2013-02-06 11:26:00,
2013-02-06 06:27:00,32.9,30.8,30.24,WNW,289,0.0,9.0,92,0.00,,,0.00,Wunderground v.1.15,2013-02-06 11:27:00,
2013-02-06 06:30:00,33.0,30.9,30.24,WNW,289,0.0,9.0,92,0.00,,,0.00,Wunderground v.1.15,2013-02-06 11:30:00,
2013-02-06 06:33:00,33.0,30.9,30.24,NE,51,0.0,9.0,92,0.00,,,0.00,Wunderground v.1.15,2013-02-06 11:33:00,
2013-02-06 06:35:00,33.1,31.0,30.24,NE,46,0.0,9.0,92,0.00,,,0.00,Wunderground v.1.15,2013-02-06 11:35:00,
2013-02-06 06:36:00,33.1,31.0,30.24,NE,46,0.0,9.0,92,0.00,,,0.00,Wunderground v.1.15,2013-02-06 11:36:00,
2013-02-06 06:37:00,33.2,31.1,30.24,NNE,31,0.0,9.0,92,0.00,,,0.00,Wunderground v.1.15,2013-02-06 11:37:00,
2013-02-06 06:38:00,33.2,31.1,30.24,NNE,31,0.0,9.0,92,0.00,,,0.00,Wunderground v.1.15,2013-02-06 11:38:00,
2013-02-06 06:43:00,33.4,31.3,30.25,NNE,31,0.0,9.0,92,0.00,,,0.00,Wunderground v.1.15,2013-02-06 11:43:00,
2013-02-06 06:44:00,33.4,31.3,30.25,NNE,31,0.0,9.0,92,0.00,,,0.00,Wunderground v.1.15,2013-02-06 11:44:00,
2013-02-06 06:46:00,33.4,31.1,30.25,NNE,31,0.0,9.0,91,0.00,,,0.00,Wunderground v.1.15,2013-02-06 11:46:00,
2013-02-06 06:47:00,33.4,31.1,30.25,NNE,31,0.0,9.0,91,0.00,,,0.00,Wunderground v.1.15,2013-02-06 11:47:00,
2013-02-06 06:50:00,33.2,30.9,30.25,NNE,31,0.0,9.0,91,0.00,,,0.00,Wunderground v.1.15,2013-02-06 11:50:00,
2013-02-06 06:52:00,33.2,30.9,30.26,NNE,31,0.0,9.0,91,0.00,,,0.00,Wunderground v.1.15,2013-02-06 11:52:00,
2013-02-06 06:53:00,33.2,31.1,30.26,NNE,31,0.0,9.0,92,0.00,,,0.00,Wunderground v.1.15,2013-02-06 11:53:00,
2013-02-06 06:55:00,33.2,31.1,30.26,NNE,31,0.0,9.0,92,0.00,,,0.00,Wunderground v.1.15,2013-02-06 11:55:00,
2013-02-06 06:56:00,33.2,31.1,30.25,NNE,31,0.0,9.0,92,0.00,,,0.00,Wunderground v.1.15,2013-02-06 11:56:00,
2013-02-06 06:59:00,33.3,31.2,30.26,NNE,30,0.0,9.0,92,0.00,,,0.00,Wunderground v.1.15,2013-02-06 11:59:00,
2013-02-06 07:01:00,33.4,31.3,30.26,NNE,30,0.0,9.0,92,0.00,,,0.00,Wunderground v.1.15,2013-02-06 12:01:00,
2013-02-06 07:02:00,33.4,31.3,30.26,NNE,32,0.0,9.0,92,0.00,,,0.00,Wunderground v.1.15,2013-02-06 12:02:00,
2013-02-06 07:05:00,33.5,31.4,30.26,NE,42,0.0,9.0,92,0.00,,,0.00,Wunderground v.1.15,2013-02-06 12:05:00,
2013-02-06 07:07:00,33.6,31.5,30.26,NE,42,0.0,9.0,92,0.00,,,0.00,Wunderground v.1.15,2013-02-06 12:07:00,
2013-02-06 07:08:00,33.7,31.4,30.26,NE,42,0.0,9.0,91,0.00,,,0.00,Wunderground v.1.15,2013-02-06 12:08:00,
2013-02-06 07:11:00,33.7,31.6,30.26,NE,42,0.0,9.0,92,0.00,,,0.00,Wunderground v.1.15,2013-02-06 12:11:00,
2013-02-06 07:12:00,33.8,31.5,30.26,NE,42,0.0,9.0,91,0.00,,,0.00,Wunderground v.1.15,2013-02-06 12:12:00,
2013-02-06 07:15:00,33.9,31.6,30.26,NE,42,0.0,9.0,91,0.00,,,0.00,Wunderground v.1.15,2013-02-06 12:15:00,
2013-02-06 07:16:00,33.9,31.6,30.26,NE,42,0.0,9.0,91,0.00,,,0.00,Wunderground v.1.15,2013-02-06 12:16:00,
2013-02-06 07:19:00,33.8,31.5,30.26,NE,42,0.0,9.0,91,0.00,,,0.00,Wunderground v.1.15,2013-02-06 12:19:00,
2013-02-06 07:20:00,33.8,31.5,30.26,NE,42,0.0,9.0,91,0.00,,,0.00,Wunderground v.1.15,2013-02-06 12:20:00,
2013-02-06 07:21:00,33.8,31.5,30.26,NE,42,0.0,9.0,91,0.00,,,0.00,Wunderground v.1.15,2013-02-06 12:21:00,
2013-02-06 07:25:00,33.8,31.5,30.27,NE,42,0.0,9.0,91,0.00,,,0.00,Wunderground v.1.15,2013-02-06 12:25:00,
2013-02-06 07:26:00,33.8,31.5,30.27,NNE,33,0.0,9.0,91,0.00,,,0.00,Wunderground v.1.15,2013-02-06 12:26:00,
2013-02-06 07:27:00,33.8,31.5,30.27,NNE,26,0.0,9.0,91,0.00,,,0.00,Wunderground v.1.15,2013-02-06 12:27:00,
2013-02-06 07:31:00,33.8,31.5,30.27,NE,48,0.0,9.0,91,0.00,,,0.00,Wunderground v.1.15,2013-02-06 12:31:00,
2013-02-06 07:32:00,33.9,31.6,30.27,NNE,31,0.0,9.0,91,0.00,,,0.00,Wunderground v.1.15,2013-02-06 12:32:00,
2013-02-06 07:37:00,34.0,31.6,30.27,NNE,32,0.0,9.0,91,0.00,,,0.00,Wunderground v.1.15,2013-02-06 12:37:00,
2013-02-06 07:39:00,34.1,31.5,30.27,NNE,32,0.0,9.0,90,0.00,,,0.00,Wunderground v.1.15,2013-02-06 12:39:00,
2013-02-06 07:40:00,34.1,31.5,30.28,NNE,32,0.0,9.0,90,0.00,,,0.00,Wunderground v.1.15,2013-02-06 12:40:00,
2013-02-06 07:41:00,34.1,31.5,30.28,NNE,32,0.0,9.0,90,0.00,,,0.00,Wunderground v.1.15,2013-02-06 12:41:00,
2013-02-06 07:44:00,34.1,31.5,30.28,NNE,32,0.0,9.0,90,0.00,,,0.00,Wunderground v.1.15,2013-02-06 12:44:00,
2013-02-06 07:46:00,34.1,31.5,30.28,NNE,32,0.0,9.0,90,0.00,,,0.00,Wunderground v.1.15,2013-02-06 12:46:00,
2013-02-06 07:48:00,34.1,31.5,30.28,NNE,32,0.0,9.0,90,0.00,,,0.00,Wunderground v.1.15,2013-02-06 12:48:00,
2013-02-06 07:51:00,34.1,31.5,30.28,NNE,32,0.0,9.0,90,0.00,,,0.00,Wunderground v.1.15,2013-02-06 12:51:00,
2013-02-06 07:52:00,34.1,31.5,30.28,NNE,32,0.0,9.0,90,0.00,,,0.00,Wunderground v.1.15,2013-02-06 12:52:00,
2013-02-06 07:54:00,34.1,31.5,30.28,NNE,32,0.0,9.0,90,0.00,,,0.00,Wunderground v.1.15,2013-02-06 12:54:00,
2013-02-06 07:57:00,34.1,31.5,30.28,NNE,32,0.0,9.0,90,0.00,,,0.00,Wunderground v.1.15,2013-02-06 12:57:00,
2013-02-06 08:01:00,33.9,31.3,30.28,NNE,32,0.0,9.0,90,0.00,,,0.00,Wunderground v.1.15,2013-02-06 13:01:00,
2013-02-06 08:02:00,33.8,31.2,30.28,NNE,32,0.0,9.0,90,0.00,,,0.00,Wunderground v.1.15,2013-02-06 13:02:00,
2013-02-06 08:03:00,33.7,31.1,30.28,NNE,32,0.0,9.0,90,0.00,,,0.00,Wunderground v.1.15,2013-02-06 13:03:00,
2013-02-06 08:07:00,33.6,31.0,30.28,NNE,32,0.0,9.0,90,0.00,,,0.00,Wunderground v.1.15,2013-02-06 13:07:00,
2013-02-06 08:08:00,33.6,31.0,30.28,NNE,32,0.0,9.0,90,0.00,,,0.00,Wunderground v.1.15,2013-02-06 13:08:00,
2013-02-06 08:10:00,33.7,31.4,30.28,NNE,32,0.0,9.0,91,0.00,,,0.00,Wunderground v.1.15,2013-02-06 13:10:00,
2013-02-06 08:11:00,33.7,31.4,30.28,NNE,32,0.0,9.0,91,0.00,,,0.00,Wunderground v.1.15,2013-02-06 13:11:00,
2013-02-06 08:13:00,33.8,31.5,30.28,NNE,32,0.0,9.0,91,0.00,,,0.00,Wunderground v.1.15,2013-02-06 13:13:00,
2013-02-06 08:17:00,33.8,31.5,30.28,NNE,32,0.0,9.0,91,0.00,,,0.00,Wunderground v.1.15,2013-02-06 13:17:00,
2013-02-06 08:18:00,33.9,31.6,30.29,NNE,32,0.0,9.0,91,0.00,,,0.00,Wunderground v.1.15,2013-02-06 13:18:00,
2013-02-06 08:19:00,33.9,31.6,30.29,NNE,32,0.0,9.0,91,0.00,,,0.00,Wunderground v.1.15,2013-02-06 13:19:00,
2013-02-06 08:22:00,33.9,31.6,30.28,NNE,32,0.0,9.0,91,0.00,,,0.00,Wunderground v.1.15,2013-02-06 13:22:00,
2013-02-06 08:24:00,33.9,31.6,30.29,NNE,32,0.0,9.0,91,0.00,,,0.00,Wunderground v.1.15,2013-02-06 13:24:00,
2013-02-06 08:28:00,34.0,31.6,30.29,NNE,32,0.0,9.0,91,0.00,,,0.00,Wunderground v.1.15,2013-02-06 13:28:00,
2013-02-06 08:29:00,34.1,31.7,30.29,NNE,32,0.0,9.0,91,0.00,,,0.00,Wunderground v.1.15,2013-02-06 13:29:00,
2013-02-06 08:30:00,34.1,31.7,30.29,NNE,32,0.0,9.0,91,0.00,,,0.00,Wunderground v.1.15,2013-02-06 13:30:00,
2013-02-06 08:35:00,34.2,31.8,30.29,NE,49,0.0,9.0,91,0.00,,,0.00,Wunderground v.1.15,2013-02-06 13:35:00,
2013-02-06 08:37:00,34.3,31.7,30.29,NE,49,0.0,9.0,90,0.00,,,0.00,Wunderground v.1.15,2013-02-06 13:37:00,
2013-02-06 08:38:00,34.3,31.9,30.30,NE,49,0.0,9.0,91,0.00,,,0.00,Wunderground v.1.15,2013-02-06 13:38:00,
2013-02-06 08:41:00,34.4,31.8,30.30,NE,49,0.0,9.0,90,0.00,,,0.00,Wunderground v.1.15,2013-02-06 13:41:00,
2013-02-06 08:42:00,34.4,31.8,30.30,NE,49,0.0,9.0,90,0.00,,,0.00,Wunderground v.1.15,2013-02-06 13:42:00,
2013-02-06 08:43:00,34.5,31.9,30.30,NE,54,0.0,9.0,90,0.00,,,0.00,Wunderground v.1.15,2013-02-06 13:43:00,
2013-02-06 08:46:00,34.6,32.0,30.30,ENE,65,0.0,9.0,90,0.00,,,0.00,Wunderground v.1.15,2013-02-06 13:46:00,
2013-02-06 08:47:00,34.6,32.0,30.31,NE,52,0.0,9.0,90,0.00,,,0.00,Wunderground v.1.15,2013-02-06 13:47:00,
2013-02-06 08:49:00,34.7,31.8,30.30,NE,53,0.0,9.0,89,0.00,,,0.00,Wunderground v.1.15,2013-02-06 13:49:00,
2013-02-06 08:52:00,34.7,31.8,30.31,NE,53,0.0,9.0,89,0.00,,,0.00,Wunderground v.1.15,2013-02-06 13:52:00,
2013-02-06 08:53:00,34.8,31.9,30.31,NE,51,0.0,9.0,89,0.00,,,0.00,Wunderground v.1.15,2013-02-06 13:53:00,
2013-02-06 08:54:00,34.8,31.9,30.31,NE,52,0.0,9.0,89,0.00,,,0.00,Wunderground v.1.15,2013-02-06 13:54:00,
2013-02-06 08:59:00,35.1,31.6,30.31,NE,36,0.0,9.0,87,0.00,,,0.00,Wunderground v.1.15,2013-02-06 13:59:00,
2013-02-06 09:01:00,35.2,31.7,30.31,NE,36,0.0,9.0,87,0.00,,,0.00,Wunderground v.1.15,2013-02-06 14:01:00,
2013-02-06 09:04:00,35.3,31.8,30.32,NE,41,0.0,9.0,87,0.00,,,0.00,Wunderground v.1.15,2013-02-06 14:04:00,
2013-02-06 09:06:00,35.3,31.8,30.32,NE,42,0.0,9.0,87,0.00,,,0.00,Wunderground v.1.15,2013-02-06 14:06:00,
2013-02-06 09:07:00,35.4,31.9,30.32,NE,42,0.0,9.0,87,0.00,,,0.00,Wunderground v.1.15,2013-02-06 14:07:00,
2013-02-06 09:11:00,35.3,31.8,30.32,NE,42,0.0,9.0,87,0.00,,,0.00,Wunderground v.1.15,2013-02-06 14:11:00,
2013-02-06 09:12:00,35.4,31.9,30.32,NE,42,0.0,9.0,87,0.00,,,0.00,Wunderground v.1.15,2013-02-06 14:12:00,
2013-02-06 09:13:00,35.4,31.9,30.32,NE,42,0.0,9.0,87,0.00,,,0.00,Wunderground v.1.15,2013-02-06 14:13:00,
2013-02-06 09:14:00,35.4,31.9,30.32,NE,42,0.0,9.0,87,0.00,,,0.00,Wunderground v.1.15,2013-02-06 14:14:00,
2013-02-06 09:16:00,35.4,31.9,30.31,NE,42,0.0,9.0,87,0.00,,,0.00,Wunderground v.1.15,2013-02-06 14:16:00,
2013-02-06 09:19:00,35.5,32.0,30.32,NE,42,0.0,9.0,87,0.00,,,0.00,Wunderground v.1.15,2013-02-06 14:19:00,
2013-02-06 09:21:00,35.5,32.0,30.32,NE,42,0.0,9.0,87,0.00,,,0.00,Wunderground v.1.15,2013-02-06 14:21:00,
2013-02-06 09:23:00,35.6,32.1,30.32,NE,46,0.0,9.0,87,0.00,,,0.00,Wunderground v.1.15,2013-02-06 14:23:00,
2013-02-06 09:24:00,35.6,32.1,30.32,NE,46,0.0,9.0,87,0.00,,,0.00,Wunderground v.1.15,2013-02-06 14:24:00,
2013-02-06 09:26:00,35.7,32.2,30.32,NE,46,0.0,9.0,87,0.00,,,0.00,Wunderground v.1.15,2013-02-06 14:26:00,
2013-02-06 09:30:00,35.9,32.1,30.32,NE,48,0.0,9.0,86,0.00,,,0.00,Wunderground v.1.15,2013-02-06 14:30:00,
2013-02-06 09:32:00,36.0,32.2,30.32,NE,48,0.0,9.0,86,0.00,,,0.00,Wunderground v.1.15,2013-02-06 14:32:00,
2013-02-06 09:33:00,36.1,32.3,30.32,NE,48,0.0,9.0,86,0.00,,,0.00,Wunderground v.1.15,2013-02-06 14:33:00,
2013-02-06 09:37:00,36.2,32.4,30.32,NE,51,0.0,9.0,86,0.00,,,0.00,Wunderground v.1.15,2013-02-06 14:37:00,
2013-02-06 09:40:00,36.4,32.6,30.32,NE,52,0.0,9.0,86,0.00,,,0.00,Wunderground v.1.15,2013-02-06 14:40:00,
2013-02-06 09:41:00,36.4,32.3,30.32,NE,53,0.0,9.0,85,0.00,,,0.00,Wunderground v.1.15,2013-02-06 14:41:00,
2013-02-06 09:42:00,36.5,32.4,30.32,NE,49,0.0,9.0,85,0.00,,,0.00,Wunderground v.1.15,2013-02-06 14:42:00,
2013-02-06 09:46:00,36.6,32.2,30.32,ENE,59,0.0,9.0,84,0.00,,,0.00,Wunderground v.1.15,2013-02-06 14:46:00,
2013-02-06 09:48:00,36.8,32.7,30.32,NE,55,0.0,9.0,85,0.00,,,0.00,Wunderground v.1.15,2013-02-06 14:48:00,
2013-02-06 09:51:00,37.0,32.9,30.32,NE,55,1.0,1.0,85,0.00,,,0.00,Wunderground v.1.15,2013-02-06 14:51:00,
2013-02-06 09:52:00,37.1,33.0,30.32,East,83,0.0,9.0,85,0.00,,,0.00,Wunderground v.1.15,2013-02-06 14:52:00,
2013-02-06 09:55:00,37.4,33.3,30.31,ENE,69,0.0,9.0,85,0.00,,,0.00,Wunderground v.1.15,2013-02-06 14:55:00,
2013-02-06 09:57:00,37.6,33.2,30.31,NE,47,1.0,9.0,84,0.00,,,0.00,Wunderground v.1.15,2013-02-06 14:57:00,
2013-02-06 09:59:00,37.9,33.8,30.31,ENE,67,1.0,9.0,85,0.00,,,0.00,Wunderground v.1.15,2013-02-06 14:59:00,
2013-02-06 10:02:00,38.3,33.3,30.31,East,79,1.0,9.0,82,0.00,,,0.00,Wunderground v.1.15,2013-02-06 15:02:00,
2013-02-06 10:03:00,38.4,32.5,30.31,ENE,76,1.0,9.0,79,0.00,,,0.00,Wunderground v.1.15,2013-02-06 15:03:00,
2013-02-06 10:04:00,38.4,32.5,30.31,ENE,78,1.0,9.0,79,0.00,,,0.00,Wunderground v.1.15,2013-02-06 15:04:00,
2013-02-06 10:08:00,38.6,32.6,30.31,East,88,1.0,9.0,79,0.00,,,0.00,Wunderground v.1.15,2013-02-06 15:08:00,
2013-02-06 10:09:00,38.6,33.0,30.31,East,93,1.0,9.0,80,0.00,,,0.00,Wunderground v.1.15,2013-02-06 15:09:00,
2013-02-06 10:11:00,38.6,31.7,30.31,East,96,1.0,1.0,76,0.00,,,0.00,Wunderground v.1.15,2013-02-06 15:11:00,
2013-02-06 10:12:00,38.7,31.8,30.31,East,84,1.0,9.0,76,0.00,,,0.00,Wunderground v.1.15,2013-02-06 15:12:00,
2013-02-06 10:13:00,38.7,32.4,30.31,East,84,0.0,9.0,78,0.00,,,0.00,Wunderground v.1.15,2013-02-06 15:13:00,
2013-02-06 10:17:00,39.0,32.7,30.31,NNE,17,0.0,9.0,78,0.00,,,0.00,Wunderground v.1.15,2013-02-06 15:17:00,
2013-02-06 10:19:00,39.1,32.8,30.31,ENE,63,0.0,9.0,78,0.00,,,0.00,Wunderground v.1.15,2013-02-06 15:19:00,
2013-02-06 10:21:00,39.3,33.0,30.31,East,81,0.0,9.0,78,0.00,,,0.00,Wunderground v.1.15,2013-02-06 15:21:00,
2013-02-06 10:23:00,39.5,32.9,30.32,ENE,63,0.0,9.0,77,0.00,,,0.00,Wunderground v.1.15,2013-02-06 15:23:00,
2013-02-06 10:24:00,39.5,32.6,30.32,East,96,0.0,9.0,76,0.00,,,0.00,Wunderground v.1.15,2013-02-06 15:24:00,
2013-02-06 10:25:00,39.6,32.7,30.32,East,94,0.0,9.0,76,0.00,,,0.00,Wunderground v.1.15,2013-02-06 15:25:00,
2013-02-06 10:28:00,39.7,32.4,30.31,East,97,0.0,9.0,75,0.00,,,0.00,Wunderground v.1.15,2013-02-06 15:28:00,
2013-02-06 10:29:00,39.7,32.8,30.31,East,97,0.0,9.0,76,0.00,,,0.00,Wunderground v.1.15,2013-02-06 15:29:00,
2013-02-06 10:31:00,39.6,32.7,30.31,East,82,0.0,9.0,76,0.00,,,0.00,Wunderground v.1.15,2013-02-06 15:31:00,
2013-02-06 10:34:00,39.5,32.2,30.31,ENE,74,0.0,9.0,75,0.00,,,0.00,Wunderground v.1.15,2013-02-06 15:34:00,
2013-02-06 10:36:00,39.5,32.2,30.32,ENE,76,0.0,9.0,75,0.00,,,0.00,Wunderground v.1.15,2013-02-06 15:36:00,
2013-02-06 10:37:00,39.5,32.6,30.32,ENE,76,0.0,9.0,76,0.00,,,0.00,Wunderground v.1.15,2013-02-06 15:37:00,
2013-02-06 10:38:00,39.6,33.0,30.32,East,80,0.0,9.0,77,0.00,,,0.00,Wunderground v.1.15,2013-02-06 15:38:00,
2013-02-06 10:41:00,39.6,32.7,30.32,East,92,0.0,9.0,76,0.00,,,0.00,Wunderground v.1.15,2013-02-06 15:41:00,
2013-02-06 10:45:00,39.6,32.3,30.33,East,88,0.0,9.0,75,0.00,,,0.00,Wunderground v.1.15,2013-02-06 15:45:00,
2013-02-06 10:46:00,39.6,32.7,30.33,East,88,0.0,9.0,76,0.00,,,0.00,Wunderground v.1.15,2013-02-06 15:46:00,
2013-02-06 10:49:00,39.7,32.8,30.33,ENE,69,0.0,9.0,76,0.00,,,0.00,Wunderground v.1.15,2013-02-06 15:49:00,
2013-02-06 10:51:00,39.7,32.8,30.33,ENE,67,0.0,9.0,76,0.00,,,0.00,Wunderground v.1.15,2013-02-06 15:51:00,
2013-02-06 10:52:00,39.7,32.8,30.33,ENE,67,0.0,9.0,76,0.00,,,0.00,Wunderground v.1.15,2013-02-06 15:52:00,
2013-02-06 10:54:00,39.7,32.8,30.33,NE,53,0.0,9.0,76,0.00,,,0.00,Wunderground v.1.15,2013-02-06 15:54:00,
2013-02-06 10:55:00,39.7,32.4,30.33,North,9,0.0,9.0,75,0.00,,,0.00,Wunderground v.1.15,2013-02-06 15:55:00,
2013-02-06 10:58:00,39.6,32.7,30.33,NE,50,0.0,9.0,76,0.00,,,0.00,Wunderground v.1.15,2013-02-06 15:58:00,
2013-02-06 11:04:00,40.0,33.4,30.33,East,82,0.0,9.0,77,0.00,,,0.00,Wunderground v.1.15,2013-02-06 16:04:00,
2013-02-06 11:05:00,40.0,33.0,30.33,ENE,71,0.0,9.0,76,0.00,,,0.00,Wunderground v.1.15,2013-02-06 16:05:00,
2013-02-06 11:07:00,40.1,32.8,30.33,ENE,72,0.0,9.0,75,0.00,,,0.00,Wunderground v.1.15,2013-02-06 16:07:00,
2013-02-06 11:10:00,40.3,33.3,30.34,ENE,72,0.0,9.0,76,0.00,,,0.00,Wunderground v.1.15,2013-02-06 16:10:00,
2013-02-06 11:12:00,40.4,33.4,30.34,ENE,71,0.0,9.0,76,0.00,,,0.00,Wunderground v.1.15,2013-02-06 16:12:00,
2013-02-06 11:13:00,40.6,33.6,30.34,NE,42,0.0,9.0,76,0.00,,,0.00,Wunderground v.1.15,2013-02-06 16:13:00,
2013-02-06 11:17:00,40.6,32.6,30.34,NE,42,0.0,9.0,73,0.00,,,0.00,Wunderground v.1.15,2013-02-06 16:17:00,
2013-02-06 11:19:00,40.6,32.3,30.34,ENE,73,0.0,9.0,72,0.00,,,0.00,Wunderground v.1.15,2013-02-06 16:19:00,
2013-02-06 11:20:00,40.5,32.5,30.34,East,80,0.0,9.0,73,0.00,,,0.00,Wunderground v.1.15,2013-02-06 16:20:00,
2013-02-06 11:22:00,40.4,32.8,30.34,East,80,0.0,9.0,74,0.00,,,0.00,Wunderground v.1.15,2013-02-06 16:22:00,
2013-02-06 11:25:00,40.2,32.2,30.34,SW,220,0.0,9.0,73,0.00,,,0.00,Wunderground v.1.15,2013-02-06 16:25:00,
2013-02-06 11:26:00,40.1,32.1,30.34,SW,220,0.0,9.0,73,0.00,,,0.00,Wunderground v.1.15,2013-02-06 16:26:00,
2013-02-06 11:29:00,40.0,32.4,30.34,SE,134,0.0,9.0,74,0.00,,,0.00,Wunderground v.1.15,2013-02-06 16:29:00,
2013-02-06 11:32:00,40.0,32.0,30.34,SW,217,0.0,9.0,73,0.00,,,0.00,Wunderground v.1.15,2013-02-06 16:32:00,
2013-02-06 11:33:00,39.8,31.8,30.34,West,261,0.0,9.0,73,0.00,,,0.00,Wunderground v.1.15,2013-02-06 16:33:00,
2013-02-06 11:35:00,39.6,31.7,30.34,West,261,0.0,9.0,73,0.00,,,0.00,Wunderground v.1.15,2013-02-06 16:35:00,
2013-02-06 11:38:00,39.7,32.4,30.33,West,261,0.0,9.0,75,0.00,,,0.00,Wunderground v.1.15,2013-02-06 16:38:00,
2013-02-06 11:40:00,39.9,32.9,30.33,West,261,0.0,9.0,76,0.00,,,0.00,Wunderground v.1.15,2013-02-06 16:40:00,
2013-02-06 11:42:00,40.0,33.0,30.33,SW,215,0.0,9.0,76,0.00,,,0.00,Wunderground v.1.15,2013-02-06 16:42:00,
2013-02-06 11:43:00,40.1,32.8,30.33,North,5,0.0,9.0,75,0.00,,,0.00,Wunderground v.1.15,2013-02-06 16:43:00,
2013-02-06 11:44:00,40.1,32.8,30.33,North,355,0.0,9.0,75,0.00,,,0.00,Wunderground v.1.15,2013-02-06 16:44:00,
2013-02-06 11:45:00,40.2,32.9,30.33,SSW,192,0.0,9.0,75,0.00,,,0.00,Wunderground v.1.15,2013-02-06 16:45:00,
2013-02-06 11:49:00,40.2,32.9,30.33,ESE,117,0.0,9.0,75,0.00,,,0.00,Wunderground v.1.15,2013-02-06 16:49:00,
2013-02-06 11:50:00,40.3,33.0,30.33,ESE,109,0.0,9.0,75,0.00,,,0.00,Wunderground v.1.15,2013-02-06 16:50:00,
2013-02-06 11:52:00,40.5,32.9,30.33,SE,144,0.0,9.0,74,0.00,,,0.00,Wunderground v.1.15,2013-02-06 16:52:00,
2013-02-06 11:54:00,40.6,33.0,30.33,South,180,0.0,9.0,74,0.00,,,0.00,Wunderground v.1.15,2013-02-06 16:54:00,
2013-02-06 11:56:00,40.5,32.9,30.33,SSE,151,0.0,9.0,74,0.00,,,0.00,Wunderground v.1.15,2013-02-06 16:56:00,
2013-02-06 11:58:00,40.5,32.9,30.33,SE,130,0.0,9.0,74,0.00,,,0.00,Wunderground v.1.15,2013-02-06 16:58:00,
2013-02-06 12:01:00,40.4,32.4,30.33,SSW,200,0.0,9.0,73,0.00,,,0.00,Wunderground v.1.15,2013-02-06 17:01:00,
2013-02-06 12:02:00,40.4,32.8,30.33,NE,49,0.0,9.0,74,0.00,,,0.00,Wunderground v.1.15,2013-02-06 17:02:00,
2013-02-06 12:03:00,40.3,33.0,30.33,ESE,117,0.0,9.0,75,0.00,,,0.00,Wunderground v.1.15,2013-02-06 17:03:00,
2013-02-06 12:07:00,40.4,32.8,30.33,ESE,103,0.0,9.0,74,0.00,,,0.00,Wunderground v.1.15,2013-02-06 17:07:00,
2013-02-06 12:08:00,40.4,33.1,30.33,ESE,114,0.0,9.0,75,0.00,,,0.00,Wunderground v.1.15,2013-02-06 17:08:00,
2013-02-06 12:09:00,40.4,33.1,30.33,SE,125,0.0,9.0,75,0.00,,,0.00,Wunderground v.1.15,2013-02-06 17:09:00,
2013-02-06 12:13:00,40.9,34.2,30.33,East,101,0.0,9.0,77,0.00,,,0.00,Wunderground v.1.15,2013-02-06 17:13:00,
2013-02-06 12:15:00,41.3,34.6,30.33,East,98,0.0,9.0,77,0.00,,,0.00,Wunderground v.1.15,2013-02-06 17:15:00,
2013-02-06 12:17:00,41.7,34.4,30.33,SSE,148,0.0,9.0,75,0.00,,,0.00,Wunderground v.1.15,2013-02-06 17:17:00,
2013-02-06 12:18:00,41.8,34.1,30.33,ESE,107,0.0,9.0,74,0.00,,,0.00,Wunderground v.1.15,2013-02-06 17:18:00,
2013-02-06 12:20:00,42.0,34.3,30.33,ESE,107,0.0,9.0,74,0.00,,,0.00,Wunderground v.1.15,2013-02-06 17:20:00,
2013-02-06 12:22:00,42.4,35.0,30.33,ESE,107,0.0,9.0,75,0.00,,,0.00,Wunderground v.1.15,2013-02-06 17:22:00,
2013-02-06 12:23:00,42.6,34.9,30.33,ESE,107,0.0,9.0,74,0.00,,,0.00,Wunderground v.1.15,2013-02-06 17:23:00,
2013-02-06 12:25:00,43.1,35.7,30.33,ESE,107,0.0,9.0,75,0.00,,,0.00,Wunderground v.1.15,2013-02-06 17:25:00,
2013-02-06 12:27:00,43.7,35.6,30.33,NE,54,0.0,9.0,73,0.00,,,0.00,Wunderground v.1.15,2013-02-06 17:27:00,
2013-02-06 12:28:00,44.1,36.7,30.32,SW,217,0.0,9.0,75,0.00,,,0.00,Wunderground v.1.15,2013-02-06 17:28:00,
2013-02-06 12:31:00,44.8,36.3,30.32,SSE,159,0.0,9.0,72,0.00,,,0.00,Wunderground v.1.15,2013-02-06 17:31:00,
2013-02-06 12:33:00,45.1,36.3,30.32,SW,229,0.0,9.0,71,0.00,,,0.00,Wunderground v.1.15,2013-02-06 17:33:00,
2013-02-06 12:34:00,45.0,34.3,30.32,SSE,158,0.0,9.0,66,0.00,,,0.00,Wunderground v.1.15,2013-02-06 17:34:00,
2013-02-06 12:37:00,44.4,34.1,30.32,ESE,107,1.0,9.0,67,0.00,,,0.00,Wunderground v.1.15,2013-02-06 17:37:00,
2013-02-06 12:38:00,44.4,34.5,30.32,SSW,211,1.0,9.0,68,0.00,,,0.00,Wunderground v.1.15,2013-02-06 17:38:00,
2013-02-06 12:39:00,44.5,35.0,30.32,West,264,1.0,9.0,69,0.00,,,0.00,Wunderground v.1.15,2013-02-06 17:39:00,
2013-02-06 12:41:00,44.2,34.7,30.32,WNW,284,1.0,9.0,69,0.00,,,0.00,Wunderground v.1.15,2013-02-06 17:41:00,
2013-02-06 12:42:00,44.1,34.2,30.32,West,272,2.0,9.0,68,0.00,,,0.00,Wunderground v.1.15,2013-02-06 17:42:00,
2013-02-06 12:44:00,43.9,34.4,30.32,WNW,300,2.0,9.0,69,0.00,,,0.00,Wunderground v.1.15,2013-02-06 17:44:00,
2013-02-06 12:46:00,43.7,33.8,30.32,WSW,244,1.0,9.0,68,0.00,,,0.00,Wunderground v.1.15,2013-02-06 17:46:00,
2013-02-06 12:49:00,43.5,34.0,30.32,ENE,78,1.0,9.0,69,0.00,,,0.00,Wunderground v.1.15,2013-02-06 17:49:00,
2013-02-06 12:51:00,44.0,35.2,30.32,North,5,1.0,1.0,71,0.00,,,0.00,Wunderground v.1.15,2013-02-06 17:51:00,
2013-02-06 12:53:00,44.5,35.7,30.32,NNE,15,1.0,9.0,71,0.00,,,0.00,Wunderground v.1.15,2013-02-06 17:53:00,
2013-02-06 12:56:00,45.1,35.2,30.32,NE,53,0.0,9.0,68,0.00,,,0.00,Wunderground v.1.15,2013-02-06 17:56:00,
2013-02-06 12:58:00,45.6,36.4,30.32,NE,50,0.0,9.0,70,0.00,,,0.00,Wunderground v.1.15,2013-02-06 17:58:00,
2013-02-06 12:59:00,46.0,36.8,30.32,ENE,76,0.0,9.0,70,0.00,,,0.00,Wunderground v.1.15,2013-02-06 17:59:00,
2013-02-06 13:01:00,46.4,36.4,30.32,ENE,59,0.0,9.0,68,0.00,,,0.00,Wunderground v.1.15,2013-02-06 18:01:00,
2013-02-06 13:03:00,47.2,37.2,30.31,South,191,0.0,9.0,68,0.00,,,0.00,Wunderground v.1.15,2013-02-06 18:03:00,
2013-02-06 13:07:00,47.2,35.6,30.31,South,188,0.0,9.0,64,0.00,,,0.00,Wunderground v.1.15,2013-02-06 18:07:00,
2013-02-06 13:09:00,46.9,35.0,30.31,SE,143,0.0,9.0,63,0.00,,,0.00,Wunderground v.1.15,2013-02-06 18:09:00,
2013-02-06 13:11:00,46.7,35.9,30.31,ESE,111,0.0,9.0,66,0.00,,,0.00,Wunderground v.1.15,2013-02-06 18:11:00,
2013-02-06 13:14:00,46.7,35.9,30.31,NW,311,0.0,9.0,66,0.00,,,0.00,Wunderground v.1.15,2013-02-06 18:14:00,
2013-02-06 13:15:00,46.7,35.9,30.31,NW,306,0.0,9.0,66,0.00,,,0.00,Wunderground v.1.15,2013-02-06 18:15:00,
2013-02-06 13:16:00,46.8,36.4,30.31,SW,217,0.0,9.0,67,0.00,,,0.00,Wunderground v.1.15,2013-02-06 18:16:00,
2013-02-06 13:17:00,46.7,35.2,30.31,SW,214,0.0,9.0,64,0.00,,,0.00,Wunderground v.1.15,2013-02-06 18:17:00,
2013-02-06 13:20:00,46.4,34.9,30.31,SW,217,0.0,9.0,64,0.00,,,0.00,Wunderground v.1.15,2013-02-06 18:20:00,
2013-02-06 13:22:00,46.0,34.5,30.32,WSW,237,0.0,9.0,64,0.00,,,0.00,Wunderground v.1.15,2013-02-06 18:22:00,
2013-02-06 13:25:00,45.8,34.7,30.31,West,267,1.0,9.0,65,0.00,,,0.00,Wunderground v.1.15,2013-02-06 18:25:00,
2013-02-06 13:27:00,45.3,33.8,30.32,West,276,2.0,9.0,64,0.00,,,0.00,Wunderground v.1.15,2013-02-06 18:27:00,
2013-02-06 13:29:00,44.7,33.6,30.32,NW,319,3.0,9.0,65,0.00,,,0.00,Wunderground v.1.15,2013-02-06 18:29:00,
2013-02-06 13:31:00,44.7,34.4,30.32,WNW,284,3.0,3.0,67,0.00,,,0.00,Wunderground v.1.15,2013-02-06 18:31:00,
2013-02-06 13:32:00,44.8,34.9,30.32,West,267,3.0,9.0,68,0.00,,,0.00,Wunderground v.1.15,2013-02-06 18:32:00,
2013-02-06 13:34:00,45.0,35.4,30.32,WNW,286,3.0,9.0,69,0.00,,,0.00,Wunderground v.1.15,2013-02-06 18:34:00,
2013-02-06 13:36:00,44.9,33.8,30.32,WSW,241,4.0,9.0,65,0.00,,,0.00,Wunderground v.1.15,2013-02-06 18:36:00,
2013-02-06 13:38:00,44.8,35.2,30.31,NW,310,3.0,9.0,69,0.00,,,0.00,Wunderground v.1.15,2013-02-06 18:38:00,
2013-02-06 13:39:00,44.9,35.0,30.31,NW,306,3.0,9.0,68,0.00,,,0.00,Wunderground v.1.15,2013-02-06 18:39:00,
2013-02-06 13:41:00,45.2,34.5,30.31,NW,324,3.0,3.0,66,0.00,,,0.00,Wunderground v.1.15,2013-02-06 18:41:00,
2013-02-06 13:42:00,45.2,34.1,30.31,WNW,288,3.0,9.0,65,0.00,,,0.00,Wunderground v.1.15,2013-02-06 18:42:00,
2013-02-06 13:44:00,45.1,34.0,30.31,NW,314,3.0,9.0,65,0.00,,,0.00,Wunderground v.1.15,2013-02-06 18:44:00,
2013-02-06 13:47:00,44.8,33.7,30.31,NNW,347,2.0,9.0,65,0.00,,,0.00,Wunderground v.1.15,2013-02-06 18:47:00,
2013-02-06 13:48:00,44.9,34.6,30.31,NW,314,2.0,9.0,67,0.00,,,0.00,Wunderground v.1.15,2013-02-06 18:48:00,
2013-02-06 13:49:00,44.8,34.5,30.31,NW,313,2.0,9.0,67,0.00,,,0.00,Wunderground v.1.15,2013-02-06 18:49:00,
2013-02-06 13:53:00,44.7,33.6,30.31,SSW,196,1.0,9.0,65,0.00,,,0.00,Wunderground v.1.15,2013-02-06 18:53:00,
2013-02-06 13:54:00,44.7,33.6,30.31,SSW,206,1.0,9.0,65,0.00,,,0.00,Wunderground v.1.15,2013-02-06 18:54:00,
2013-02-06 13:56:00,44.7,33.3,30.31,SW,215,1.0,9.0,64,0.00,,,0.00,Wunderground v.1.15,2013-02-06 18:56:00,
2013-02-06 13:59:00,44.9,33.8,30.30,SW,236,1.0,9.0,65,0.00,,,0.00,Wunderground v.1.15,2013-02-06 18:59:00,
2013-02-06 14:01:00,45.1,34.4,30.30,NNW,332,1.0,1.0,66,0.00,,,0.00,Wunderground v.1.15,2013-02-06 19:01:00,
2013-02-06 14:04:00,45.9,35.2,30.30,WNW,297,1.0,9.0,66,0.00,,,0.00,Wunderground v.1.15,2013-02-06 19:04:00,
2013-02-06 14:06:00,46.3,35.6,30.30,South,184,1.0,9.0,66,0.00,,,0.00,Wunderground v.1.15,2013-02-06 19:06:00,
2013-02-06 14:10:00,46.4,34.5,30.30,WNW,284,1.0,9.0,63,0.00,,,0.00,Wunderground v.1.15,2013-02-06 19:10:00,
2013-02-06 14:11:00,46.2,33.9,30.30,West,268,1.0,9.0,62,0.00,,,0.00,Wunderground v.1.15,2013-02-06 19:11:00,
2013-02-06 14:12:00,46.0,34.1,30.30,WNW,282,1.0,9.0,63,0.00,,,0.00,Wunderground v.1.15,2013-02-06 19:12:00,
2013-02-06 14:16:00,45.6,33.7,30.30,WNW,298,3.0,9.0,63,0.00,,,0.00,Wunderground v.1.15,2013-02-06 19:16:00,
2013-02-06 14:19:00,45.9,34.4,30.30,NW,304,2.0,9.0,64,0.00,,,0.00,Wunderground v.1.15,2013-02-06 19:19:00,
2013-02-06 14:21:00,45.9,32.8,30.30,West,277,2.0,9.0,60,0.00,,,0.00,Wunderground v.1.15,2013-02-06 19:21:00,
2013-02-06 14:22:00,45.9,34.0,30.30,West,275,2.0,9.0,63,0.00,,,0.00,Wunderground v.1.15,2013-02-06 19:22:00,
2013-02-06 14:23:00,46.1,34.2,30.30,West,276,1.0,9.0,63,0.00,,,0.00,Wunderground v.1.15,2013-02-06 19:23:00,
2013-02-06 14:28:00,46.4,33.7,30.30,NW,322,1.0,9.0,61,0.00,,,0.00,Wunderground v.1.15,2013-02-06 19:28:00,
2013-02-06 14:30:00,46.5,33.4,30.30,NNE,15,1.0,9.0,60,0.00,,,0.00,Wunderground v.1.15,2013-02-06 19:30:00,
2013-02-06 14:33:00,46.6,33.9,30.30,WNW,296,0.0,9.0,61,0.00,,,0.00,Wunderground v.1.15,2013-02-06 19:33:00,
2013-02-06 14:35:00,46.8,34.5,30.30,NNW,346,0.0,9.0,62,0.00,,,0.00,Wunderground v.1.15,2013-02-06 19:35:00,
2013-02-06 14:37:00,47.0,34.2,30.30,NW,304,0.0,9.0,61,0.00,,,0.00,Wunderground v.1.15,2013-02-06 19:37:00,
2013-02-06 14:39:00,47.0,33.8,30.30,NW,315,0.0,9.0,60,0.00,,,0.00,Wunderground v.1.15,2013-02-06 19:39:00,
2013-02-06 14:40:00,47.0,34.6,30.30,NW,315,0.0,9.0,62,0.00,,,0.00,Wunderground v.1.15,2013-02-06 19:40:00,
2013-02-06 14:42:00,47.2,35.2,30.30,NW,315,0.0,9.0,63,0.00,,,0.00,Wunderground v.1.15,2013-02-06 19:42:00,
2013-02-06 14:46:00,47.0,33.8,30.30,NW,313,0.0,9.0,60,0.00,,,0.00,Wunderground v.1.15,2013-02-06 19:46:00,
2013-02-06 14:47:00,47.0,33.8,30.30,NW,313,0.0,9.0,60,0.00,,,0.00,Wunderground v.1.15,2013-02-06 19:47:00,
2013-02-06 14:49:00,47.1,35.1,30.30,North,5,0.0,9.0,63,0.00,,,0.00,Wunderground v.1.15,2013-02-06 19:49:00,
2013-02-06 14:52:00,47.3,34.5,30.30,NNW,348,0.0,9.0,61,0.00,,,0.00,Wunderground v.1.15,2013-02-06 19:52:00,
2013-02-06 14:54:00,47.2,34.4,30.30,NNW,334,0.0,9.0,61,0.00,,,0.00,Wunderground v.1.15,2013-02-06 19:54:00,
2013-02-06 14:56:00,47.0,34.6,30.30,North,349,0.0,9.0,62,0.00,,,0.00,Wunderground v.1.15,2013-02-06 19:56:00,
2013-02-06 14:58:00,47.2,34.4,30.30,NW,304,1.0,9.0,61,0.00,,,0.00,Wunderground v.1.15,2013-02-06 19:58:00,
2013-02-06 14:59:00,47.2,34.4,30.30,NW,304,1.0,9.0,61,0.00,,,0.00,Wunderground v.1.15,2013-02-06 19:59:00,
2013-02-06 15:01:00,47.2,34.4,30.30,NW,304,0.0,9.0,61,0.00,,,0.00,Wunderground v.1.15,2013-02-06 20:01:00,
2013-02-06 15:05:00,47.2,34.0,30.30,WSW,252,1.0,9.0,60,0.00,,,0.00,Wunderground v.1.15,2013-02-06 20:05:00,
2013-02-06 15:06:00,47.0,34.2,30.30,SSW,211,1.0,9.0,61,0.00,,,0.00,Wunderground v.1.15,2013-02-06 20:06:00,
2013-02-06 15:07:00,46.9,34.1,30.30,SSW,211,1.0,9.0,61,0.00,,,0.00,Wunderground v.1.15,2013-02-06 20:07:00,
2013-02-06 15:12:00,47.6,34.8,30.30,NNW,335,1.0,4.0,61,0.00,,,0.00,Wunderground v.1.15,2013-02-06 20:12:00,
2013-02-06 15:13:00,47.7,34.9,30.30,NNW,337,1.0,9.0,61,0.00,,,0.00,Wunderground v.1.15,2013-02-06 20:13:00,
2013-02-06 15:14:00,47.7,35.3,30.30,NW,320,1.0,9.0,62,0.00,,,0.00,Wunderground v.1.15,2013-02-06 20:14:00,
2013-02-06 15:15:00,47.7,34.5,30.30,NW,322,1.0,9.0,60,0.00,,,0.00,Wunderground v.1.15,2013-02-06 20:15:00,
2013-02-06 15:18:00,47.6,35.2,30.30,NW,311,2.0,9.0,62,0.00,,,0.00,Wunderground v.1.15,2013-02-06 20:18:00,
2013-02-06 15:19:00,47.6,34.4,30.30,NW,316,2.0,9.0,60,0.00,,,0.00,Wunderground v.1.15,2013-02-06 20:19:00,
2013-02-06 15:21:00,47.7,34.5,30.30,NW,304,3.0,3.0,60,0.00,,,0.00,Wunderground v.1.15,2013-02-06 20:21:00,
2013-02-06 15:22:00,47.9,35.1,30.30,NW,324,3.0,9.0,61,0.00,,,0.00,Wunderground v.1.15,2013-02-06 20:22:00,
2013-02-06 15:25:00,48.2,35.0,30.30,NNW,345,2.0,9.0,60,0.00,,,0.00,Wunderground v.1.15,2013-02-06 20:25:00,
2013-02-06 15:27:00,48.0,34.3,30.30,North,350,2.0,9.0,59,0.00,,,0.00,Wunderground v.1.15,2013-02-06 20:27:00,
2013-02-06 15:30:00,47.7,33.6,30.30,WNW,288,2.0,9.0,58,0.00,,,0.00,Wunderground v.1.15,2013-02-06 20:30:00,
2013-02-06 15:32:00,47.4,33.8,30.30,WNW,298,2.0,9.0,59,0.00,,,0.00,Wunderground v.1.15,2013-02-06 20:32:00,
2013-02-06 15:34:00,47.4,34.2,30.31,WNW,298,2.0,9.0,60,0.00,,,0.00,Wunderground v.1.15,2013-02-06 20:34:00,
2013-02-06 15:35:00,47.6,34.4,30.30,WNW,298,2.0,9.0,60,0.00,,,0.00,Wunderground v.1.15,2013-02-06 20:35:00,
2013-02-06 15:39:00,48.3,34.2,30.30,NW,320,1.0,9.0,58,0.00,,,0.00,Wunderground v.1.15,2013-02-06 20:39:00,
2013-02-06 15:40:00,48.3,34.2,30.31,NW,308,1.0,9.0,58,0.00,,,0.00,Wunderground v.1.15,2013-02-06 20:40:00,
2013-02-06 15:42:00,48.3,33.8,30.31,NNW,329,1.0,9.0,57,0.00,,,0.00,Wunderground v.1.15,2013-02-06 20:42:00,
2013-02-06 15:45:00,48.3,34.2,30.31,NNE,22,1.0,9.0,58,0.00,,,0.00,Wunderground v.1.15,2013-02-06 20:45:00,
2013-02-06 15:46:00,48.3,33.8,30.30,North,5,1.0,9.0,57,0.00,,,0.00,Wunderground v.1.15,2013-02-06 20:46:00,
2013-02-06 15:48:00,48.1,33.6,30.31,NNW,333,2.0,9.0,57,0.00,,,0.00,Wunderground v.1.15,2013-02-06 20:48:00,
2013-02-06 15:51:00,47.9,33.4,30.31,North,355,2.0,9.0,57,0.00,,,0.00,Wunderground v.1.15,2013-02-06 20:51:00,
2013-02-06 15:52:00,47.7,33.2,30.31,NW,311,2.0,9.0,57,0.00,,,0.00,Wunderground v.1.15,2013-02-06 20:52:00,
2013-02-06 15:56:00,47.5,33.9,30.31,WNW,292,3.0,9.0,59,0.00,,,0.00,Wunderground v.1.15,2013-02-06 20:56:00,
2013-02-06 15:57:00,47.5,34.3,30.31,West,276,3.0,9.0,60,0.00,,,0.00,Wunderground v.1.15,2013-02-06 20:57:00,
2013-02-06 16:01:00,47.3,33.7,30.31,WNW,298,2.0,2.0,59,0.00,,,0.00,Wunderground v.1.15,2013-02-06 21:01:00,
2013-02-06 16:02:00,47.2,33.2,30.31,WSW,238,2.0,9.0,58,0.00,,,0.00,Wunderground v.1.15,2013-02-06 21:02:00,
2013-02-06 16:03:00,47.1,33.5,30.31,WSW,238,1.0,9.0,59,0.00,,,0.00,Wunderground v.1.15,2013-02-06 21:03:00,
2013-02-06 16:07:00,47.4,34.2,30.31,North,11,1.0,9.0,60,0.00,,,0.00,Wunderground v.1.15,2013-02-06 21:07:00,
2013-02-06 16:08:00,47.5,34.3,30.31,North,11,1.0,9.0,60,0.00,,,0.00,Wunderground v.1.15,2013-02-06 21:08:00,
2013-02-06 16:10:00,47.7,34.5,30.31,NW,322,1.0,9.0,60,0.00,,,0.00,Wunderground v.1.15,2013-02-06 21:10:00,
2013-02-06 16:12:00,48.0,34.8,30.31,North,349,1.0,9.0,60,0.00,,,0.00,Wunderground v.1.15,2013-02-06 21:12:00,
2013-02-06 16:13:00,48.0,34.8,30.31,NW,323,1.0,9.0,60,0.00,,,0.00,Wunderground v.1.15,2013-02-06 21:13:00,
2013-02-06 16:16:00,48.2,35.0,30.31,NW,306,1.0,9.0,60,0.00,,,0.00,Wunderground v.1.15,2013-02-06 21:16:00,
2013-02-06 16:17:00,48.3,34.6,30.31,WNW,290,1.0,9.0,59,0.00,,,0.00,Wunderground v.1.15,2013-02-06 21:17:00,
2013-02-06 16:18:00,48.3,34.2,30.31,WNW,286,1.0,9.0,58,0.00,,,0.00,Wunderground v.1.15,2013-02-06 21:18:00,
2013-02-06 16:21:00,47.7,33.6,30.31,West,259,1.0,9.0,58,0.00,,,0.00,Wunderground v.1.15,2013-02-06 21:21:00,
2013-02-06 16:25:00,47.6,34.0,30.31,WNW,290,1.0,9.0,59,0.00,,,0.00,Wunderground v.1.15,2013-02-06 21:25:00,
2013-02-06 16:27:00,47.8,34.2,30.31,WNW,291,2.0,9.0,59,0.00,,,0.00,Wunderground v.1.15,2013-02-06 21:27:00,
2013-02-06 16:28:00,47.8,33.7,30.31,West,280,2.0,9.0,58,0.00,,,0.00,Wunderground v.1.15,2013-02-06 21:28:00,
2013-02-06 16:29:00,47.7,33.6,30.31,WNW,290,2.0,9.0,58,0.00,,,0.00,Wunderground v.1.15,2013-02-06 21:29:00,
2013-02-06 16:32:00,47.4,33.4,30.31,NW,319,2.0,9.0,58,0.00,,,0.00,Wunderground v.1.15,2013-02-06 21:32:00,
2013-02-06 16:33:00,47.4,33.8,30.31,NW,319,2.0,9.0,59,0.00,,,0.00,Wunderground v.1.15,2013-02-06 21:33:00,
2013-02-06 16:35:00,47.5,33.9,30.31,North,5,2.0,9.0,59,0.00,,,0.00,Wunderground v.1.15,2013-02-06 21:35:00,
2013-02-06 16:37:00,47.5,34.3,30.31,North,350,1.0,9.0,60,0.00,,,0.00,Wunderground v.1.15,2013-02-06 21:37:00,
2013-02-06 16:38:00,47.4,33.8,30.31,WNW,302,1.0,9.0,59,0.00,,,0.00,Wunderground v.1.15,2013-02-06 21:38:00,
2013-02-06 16:39:00,47.4,33.8,30.31,WNW,302,1.0,9.0,59,0.00,,,0.00,Wunderground v.1.15,2013-02-06 21:39:00,
2013-02-06 16:40:00,47.4,33.8,30.31,NW,314,1.0,9.0,59,0.00,,,0.00,Wunderground v.1.15,2013-02-06 21:40:00,
2013-02-06 16:44:00,47.4,33.8,30.31,NW,306,1.0,9.0,59,0.00,,,0.00,Wunderground v.1.15,2013-02-06 21:44:00,
2013-02-06 16:45:00,47.5,33.9,30.30,NW,306,1.0,9.0,59,0.00,,,0.00,Wunderground v.1.15,2013-02-06 21:45:00,
2013-02-06 16:48:00,47.7,34.5,30.30,NE,50,0.0,9.0,60,0.00,,,0.00,Wunderground v.1.15,2013-02-06 21:48:00,
2013-02-06 16:49:00,47.7,34.5,30.30,NE,49,0.0,9.0,60,0.00,,,0.00,Wunderground v.1.15,2013-02-06 21:49:00,
2013-02-06 16:51:00,47.9,34.3,30.30,North,5,0.0,9.0,59,0.00,,,0.00,Wunderground v.1.15,2013-02-06 21:51:00,
2013-02-06 16:52:00,47.8,33.7,30.30,North,5,0.0,9.0,58,0.00,,,0.00,Wunderground v.1.15,2013-02-06 21:52:00,
2013-02-06 16:58:00,48.0,34.3,30.30,North,351,0.0,9.0,59,0.00,,,0.00,Wunderground v.1.15,2013-02-06 21:58:00,
2013-02-06 16:59:00,48.0,33.9,30.30,NNW,333,0.0,9.0,58,0.00,,,0.00,Wunderground v.1.15,2013-02-06 21:59:00,
2013-02-06 17:01:00,47.9,34.7,30.30,NNE,15,1.0,9.0,60,0.00,,,0.00,Wunderground v.1.15,2013-02-06 22:01:00,
2013-02-06 17:04:00,47.7,33.6,30.30,NNW,330,1.0,9.0,58,0.00,,,0.00,Wunderground v.1.15,2013-02-06 22:04:00,
2013-02-06 17:05:00,47.6,33.5,30.30,NNW,328,1.0,9.0,58,0.00,,,0.00,Wunderground v.1.15,2013-02-06 22:05:00,
2013-02-06 17:07:00,47.4,33.8,30.30,North,5,1.0,9.0,59,0.00,,,0.00,Wunderground v.1.15,2013-02-06 22:07:00,
2013-02-06 17:08:00,47.4,33.8,30.30,ENE,57,1.0,9.0,59,0.00,,,0.00,Wunderground v.1.15,2013-02-06 22:08:00,
2013-02-06 17:10:00,47.4,33.8,30.31,NE,44,1.0,9.0,59,0.00,,,0.00,Wunderground v.1.15,2013-02-06 22:10:00,
2013-02-06 17:12:00,47.4,34.2,30.31,NE,34,1.0,9.0,60,0.00,,,0.00,Wunderground v.1.15,2013-02-06 22:12:00,
2013-02-06 17:14:00,47.3,33.7,30.30,NNE,13,0.0,9.0,59,0.00,,,0.00,Wunderground v.1.15,2013-02-06 22:14:00,
2013-02-06 17:15:00,47.3,33.7,30.30,NNE,13,0.0,9.0,59,0.00,,,0.00,Wunderground v.1.15,2013-02-06 22:15:00,
2013-02-06 17:16:00,47.3,34.1,30.30,NNE,13,0.0,9.0,60,0.00,,,0.00,Wunderground v.1.15,2013-02-06 22:16:00,
2013-02-06 17:21:00,47.6,34.4,30.30,NNE,13,0.0,9.0,60,0.00,,,0.00,Wunderground v.1.15,2013-02-06 22:21:00,
2013-02-06 17:22:00,47.7,34.9,30.30,NNE,13,0.0,9.0,61,0.00,,,0.00,Wunderground v.1.15,2013-02-06 22:22:00,
2013-02-06 17:23:00,47.8,35.0,30.30,NE,42,0.0,9.0,61,0.00,,,0.00,Wunderground v.1.15,2013-02-06 22:23:00,
2013-02-06 17:27:00,47.8,34.2,30.30,NE,42,0.0,9.0,59,0.00,,,0.00,Wunderground v.1.15,2013-02-06 22:27:00,
2013-02-06 17:29:00,47.8,34.2,30.30,NE,42,0.0,9.0,59,0.00,,,0.00,Wunderground v.1.15,2013-02-06 22:29:00,
2013-02-06 17:31:00,47.7,34.1,30.31,NE,42,0.0,9.0,59,0.00,,,0.00,Wunderground v.1.15,2013-02-06 22:31:00,
2013-02-06 17:32:00,47.7,34.1,30.31,NE,42,0.0,9.0,59,0.00,,,0.00,Wunderground v.1.15,2013-02-06 22:32:00,
2013-02-06 17:35:00,47.7,34.1,30.30,NE,42,0.0,9.0,59,0.00,,,0.00,Wunderground v.1.15,2013-02-06 22:35:00,
2013-02-06 17:37:00,47.6,34.0,30.31,ENE,67,0.0,9.0,59,0.00,,,0.00,Wunderground v.1.15,2013-02-06 22:37:00,
2013-02-06 17:38:00,47.4,33.8,30.31,East,82,0.0,9.0,59,0.00,,,0.00,Wunderground v.1.15,2013-02-06 22:38:00,
2013-02-06 17:43:00,46.4,33.7,30.30,East,80,0.0,9.0,61,0.00,,,0.00,Wunderground v.1.15,2013-02-06 22:43:00,
2013-02-06 17:44:00,46.3,34.0,30.30,East,83,0.0,9.0,62,0.00,,,0.00,Wunderground v.1.15,2013-02-06 22:44:00,
2013-02-06 17:45:00,46.1,33.8,30.30,East,83,0.0,9.0,62,0.00,,,0.00,Wunderground v.1.15,2013-02-06 22:45:00,
2013-02-06 17:48:00,45.6,33.7,30.30,East,82,0.0,9.0,63,0.00,,,0.00,Wunderground v.1.15,2013-02-06 22:48:00,
2013-02-06 17:51:00,45.2,33.7,30.30,East,84,0.0,9.0,64,0.00,,,0.00,Wunderground v.1.15,2013-02-06 22:51:00,
2013-02-06 17:52:00,45.0,33.5,30.30,East,82,0.0,9.0,64,0.00,,,0.00,Wunderground v.1.15,2013-02-06 22:52:00,
2013-02-06 17:56:00,44.4,33.4,30.30,East,84,0.0,9.0,65,0.00,,,0.00,Wunderground v.1.15,2013-02-06 22:56:00,
2013-02-06 17:57:00,44.3,33.3,30.29,East,82,0.0,9.0,65,0.00,,,0.00,Wunderground v.1.15,2013-02-06 22:57:00,
2013-02-06 17:58:00,44.2,33.2,30.30,East,83,0.0,9.0,65,0.00,,,0.00,Wunderground v.1.15,2013-02-06 22:58:00,
2013-02-06 18:03:00,43.7,33.1,30.29,East,91,0.0,9.0,66,0.00,,,0.00,Wunderground v.1.15,2013-02-06 23:03:00,
2013-02-06 18:06:00,43.5,33.3,30.29,ENE,71,0.0,9.0,67,0.00,,,0.00,Wunderground v.1.15,2013-02-06 23:06:00,
2013-02-06 18:08:00,43.3,33.1,30.29,East,94,0.0,9.0,67,0.00,,,0.00,Wunderground v.1.15,2013-02-06 23:08:00,
2013-02-06 18:10:00,43.2,33.0,30.29,East,92,0.0,9.0,67,0.00,,,0.00,Wunderground v.1.15,2013-02-06 23:10:00,
2013-02-06 18:12:00,43.1,33.3,30.29,East,88,0.0,9.0,68,0.00,,,0.00,Wunderground v.1.15,2013-02-06 23:12:00,
2013-02-06 18:13:00,43.0,33.2,30.29,East,86,0.0,9.0,68,0.00,,,0.00,Wunderground v.1.15,2013-02-06 23:13:00,
2013-02-06 18:14:00,43.0,33.2,30.29,East,90,0.0,9.0,68,0.00,,,0.00,Wunderground v.1.15,2013-02-06 23:14:00,
2013-02-06 18:16:00,42.9,33.1,30.29,East,83,0.0,9.0,68,0.00,,,0.00,Wunderground v.1.15,2013-02-06 23:16:00,
2013-02-06 18:19:00,42.8,33.0,30.30,NE,55,0.0,9.0,68,0.00,,,0.00,Wunderground v.1.15,2013-02-06 23:19:00,
2013-02-06 18:20:00,42.8,33.3,30.29,ENE,59,0.0,9.0,69,0.00,,,0.00,Wunderground v.1.15,2013-02-06 23:20:00,
2013-02-06 18:22:00,42.7,33.2,30.30,East,87,0.0,9.0,69,0.00,,,0.00,Wunderground v.1.15,2013-02-06 23:22:00,
2013-02-06 18:24:00,42.6,33.1,30.30,East,88,0.0,9.0,69,0.00,,,0.00,Wunderground v.1.15,2013-02-06 23:24:00,
2013-02-06 18:27:00,42.5,33.0,30.30,East,91,0.0,9.0,69,0.00,,,0.00,Wunderground v.1.15,2013-02-06 23:27:00,
2013-02-06 18:28:00,42.4,32.9,30.30,East,85,0.0,9.0,69,0.00,,,0.00,Wunderground v.1.15,2013-02-06 23:28:00,
2013-02-06 18:30:00,42.3,32.8,30.30,ESE,103,0.0,9.0,69,0.00,,,0.00,Wunderground v.1.15,2013-02-06 23:30:00,
2013-02-06 18:32:00,42.2,33.1,30.30,East,96,0.0,9.0,70,0.00,,,0.00,Wunderground v.1.15,2013-02-06 23:32:00,
2013-02-06 18:34:00,42.1,33.0,30.30,East,87,0.0,9.0,70,0.00,,,0.00,Wunderground v.1.15,2013-02-06 23:34:00,
2013-02-06 18:35:00,42.0,32.9,30.30,East,84,0.0,9.0,70,0.00,,,0.00,Wunderground v.1.15,2013-02-06 23:35:00,
2013-02-06 18:36:00,41.9,32.8,30.30,East,81,0.0,9.0,70,0.00,,,0.00,Wunderground v.1.15,2013-02-06 23:36:00,
2013-02-06 18:38:00,41.8,33.1,30.29,ESE,102,0.0,9.0,71,0.00,,,0.00,Wunderground v.1.15,2013-02-06 23:38:00,
2013-02-06 18:40:00,41.7,33.0,30.30,ENE,76,0.0,9.0,71,0.00,,,0.00,Wunderground v.1.15,2013-02-06 23:40:00,
2013-02-06 18:41:00,41.6,32.9,30.30,ESE,103,0.0,9.0,71,0.00,,,0.00,Wunderground v.1.15,2013-02-06 23:41:00,
2013-02-06 18:45:00,41.4,32.7,30.30,East,99,0.0,9.0,71,0.00,,,0.00,Wunderground v.1.15,2013-02-06 23:45:00,
2013-02-06 18:48:00,41.2,32.9,30.30,ENE,76,0.0,9.0,72,0.00,,,0.00,Wunderground v.1.15,2013-02-06 23:48:00,
2013-02-06 18:50:00,41.1,32.8,30.30,East,94,0.0,9.0,72,0.00,,,0.00,Wunderground v.1.15,2013-02-06 23:50:00,
2013-02-06 18:51:00,41.1,32.8,30.30,ENE,77,0.0,9.0,72,0.00,,,0.00,Wunderground v.1.15,2013-02-06 23:51:00,
2013-02-06 18:52:00,41.0,32.7,30.29,ENE,73,0.0,9.0,72,0.00,,,0.00,Wunderground v.1.15,2013-02-06 23:52:00,
2013-02-06 18:54:00,40.9,32.6,30.29,East,85,0.0,9.0,72,0.00,,,0.00,Wunderground v.1.15,2013-02-06 23:54:00,
2013-02-06 18:57:00,40.7,32.7,30.29,East,96,0.0,9.0,73,0.00,,,0.00,Wunderground v.1.15,2013-02-06 23:57:00,
2013-02-06 19:01:00,40.6,32.6,30.30,East,91,0.0,9.0,73,0.00,,,0.00,Wunderground v.1.15,2013-02-07 00:01:00,
2013-02-06 19:02:00,40.5,32.5,30.30,ENE,75,0.0,9.0,73,0.00,,,0.00,Wunderground v.1.15,2013-02-07 00:02:00,
2013-02-06 19:03:00,40.4,32.4,30.30,ENE,75,0.0,9.0,73,0.00,,,0.00,Wunderground v.1.15,2013-02-07 00:03:00,
2013-02-06 19:07:00,40.2,32.6,30.29,ENE,65,0.0,9.0,74,0.00,,,0.00,Wunderground v.1.15,2013-02-07 00:07:00,
2013-02-06 19:08:00,40.2,32.6,30.29,East,79,0.0,9.0,74,0.00,,,0.00,Wunderground v.1.15,2013-02-07 00:08:00,
2013-02-06 19:09:00,40.2,32.6,30.29,East,83,0.0,9.0,74,0.00,,,0.00,Wunderground v.1.15,2013-02-07 00:09:00,
2013-02-06 19:14:00,40.0,32.4,30.29,ENE,75,0.0,9.0,74,0.00,,,0.00,Wunderground v.1.15,2013-02-07 00:14:00,
2013-02-06 19:16:00,40.0,32.4,30.29,ESE,104,0.0,9.0,74,0.00,,,0.00,Wunderground v.1.15,2013-02-07 00:16:00,
2013-02-06 19:17:00,40.0,32.4,30.29,East,87,0.0,9.0,74,0.00,,,0.00,Wunderground v.1.15,2013-02-07 00:17:00,
2013-02-06 19:21:00,39.8,32.2,30.29,East,88,0.0,9.0,74,0.00,,,0.00,Wunderground v.1.15,2013-02-07 00:21:00,
2013-02-06 19:22:00,39.8,32.2,30.29,SE,137,0.0,9.0,74,0.00,,,0.00,Wunderground v.1.15,2013-02-07 00:22:00,
2013-02-06 19:23:00,39.8,32.2,30.29,East,82,0.0,9.0,74,0.00,,,0.00,Wunderground v.1.15,2013-02-07 00:23:00,
2013-02-06 19:25:00,39.8,32.2,30.29,East,79,0.0,9.0,74,0.00,,,0.00,Wunderground v.1.15,2013-02-07 00:25:00,
2013-02-06 19:28:00,39.7,32.1,30.29,East,98,0.0,9.0,74,0.00,,,0.00,Wunderground v.1.15,2013-02-07 00:28:00,
2013-02-06 19:30:00,39.6,32.0,30.29,ENE,59,0.0,9.0,74,0.00,,,0.00,Wunderground v.1.15,2013-02-07 00:30:00,
2013-02-06 19:31:00,39.5,32.2,30.29,ENE,59,0.0,9.0,75,0.00,,,0.00,Wunderground v.1.15,2013-02-07 00:31:00,
2013-02-06 19:35:00,39.4,32.1,30.30,ENE,70,0.0,9.0,75,0.00,,,0.00,Wunderground v.1.15,2013-02-07 00:35:00,
2013-02-06 19:36:00,39.3,32.0,30.30,ENE,78,0.0,9.0,75,0.00,,,0.00,Wunderground v.1.15,2013-02-07 00:36:00,
2013-02-06 19:37:00,39.3,32.0,30.30,ENE,77,0.0,9.0,75,0.00,,,0.00,Wunderground v.1.15,2013-02-07 00:37:00,
2013-02-06 19:40:00,39.3,32.0,30.31,East,81,0.0,9.0,75,0.00,,,0.00,Wunderground v.1.15,2013-02-07 00:40:00,
2013-02-06 19:44:00,39.3,32.0,30.31,East,80,1.0,9.0,75,0.00,,,0.00,Wunderground v.1.15,2013-02-07 00:44:00,
2013-02-06 19:45:00,39.3,32.0,30.31,ENE,72,1.0,9.0,75,0.00,,,0.00,Wunderground v.1.15,2013-02-07 00:45:00,
2013-02-06 19:46:00,39.3,32.0,30.31,East,101,1.0,9.0,75,0.00,,,0.00,Wunderground v.1.15,2013-02-07 00:46:00,
2013-02-06 19:47:00,39.3,32.0,30.31,ENE,77,1.0,9.0,75,0.00,,,0.00,Wunderground v.1.15,2013-02-07 00:47:00,
2013-02-06 19:49:00,39.3,32.0,30.31,ENE,78,1.0,9.0,75,0.00,,,0.00,Wunderground v.1.15,2013-02-07 00:49:00,
2013-02-06 19:53:00,39.2,31.9,30.31,East,84,1.0,9.0,75,0.00,,,0.00,Wunderground v.1.15,2013-02-07 00:53:00,
2013-02-06 19:54:00,39.2,31.9,30.31,ENE,61,1.0,9.0,75,0.00,,,0.00,Wunderground v.1.15,2013-02-07 00:54:00,
2013-02-06 19:55:00,39.1,31.8,30.31,ENE,75,1.0,9.0,75,0.00,,,0.00,Wunderground v.1.15,2013-02-07 00:55:00,
2013-02-06 19:58:00,39.0,31.7,30.31,ESE,107,0.0,9.0,75,0.00,,,0.00,Wunderground v.1.15,2013-02-07 00:58:00,
2013-02-06 19:59:00,39.0,31.7,30.31,East,88,0.0,9.0,75,0.00,,,0.00,Wunderground v.1.15,2013-02-07 00:59:00,
2013-02-06 20:04:00,38.9,31.6,30.31,East,79,0.0,9.0,75,0.00,,,0.00,Wunderground v.1.15,2013-02-07 01:04:00,
2013-02-06 20:05:00,38.9,31.6,30.31,East,81,0.0,9.0,75,0.00,,,0.00,Wunderground v.1.15,2013-02-07 01:05:00,
2013-02-06 20:06:00,38.9,31.6,30.31,ENE,77,1.0,9.0,75,0.00,,,0.00,Wunderground v.1.15,2013-02-07 01:06:00,
2013-02-06 20:10:00,38.8,31.2,30.31,ENE,77,1.0,9.0,74,0.00,,,0.00,Wunderground v.1.15,2013-02-07 01:10:00,
2013-02-06 20:12:00,38.8,31.2,30.31,East,83,1.0,9.0,74,0.00,,,0.00,Wunderground v.1.15,2013-02-07 01:12:00,
2013-02-06 20:15:00,38.8,31.2,30.31,ENE,65,1.0,9.0,74,0.00,,,0.00,Wunderground v.1.15,2013-02-07 01:15:00,
2013-02-06 20:16:00,38.8,31.2,30.31,East,92,1.0,9.0,74,0.00,,,0.00,Wunderground v.1.15,2013-02-07 01:16:00,
2013-02-06 20:18:00,38.7,31.1,30.31,East,84,1.0,9.0,74,0.00,,,0.00,Wunderground v.1.15,2013-02-07 01:18:00,
2013-02-06 20:19:00,38.7,31.1,30.31,East,84,1.0,9.0,74,0.00,,,0.00,Wunderground v.1.15,2013-02-07 01:19:00,
2013-02-06 20:21:00,38.6,31.0,30.31,East,92,1.0,1.0,74,0.00,,,0.00,Wunderground v.1.15,2013-02-07 01:21:00,
2013-02-06 20:24:00,38.5,30.9,30.31,East,89,1.0,9.0,74,0.00,,,0.00,Wunderground v.1.15,2013-02-07 01:24:00,
2013-02-06 20:26:00,38.5,30.9,30.31,East,86,1.0,9.0,74,0.00,,,0.00,Wunderground v.1.15,2013-02-07 01:26:00,
2013-02-06 20:27:00,38.5,30.9,30.31,East,92,1.0,9.0,74,0.00,,,0.00,Wunderground v.1.15,2013-02-07 01:27:00,
2013-02-06 20:28:00,38.4,30.8,30.31,East,83,1.0,9.0,74,0.00,,,0.00,Wunderground v.1.15,2013-02-07 01:28:00,
2013-02-06 20:32:00,38.3,31.1,30.30,East,86,1.0,9.0,75,0.00,,,0.00,Wunderground v.1.15,2013-02-07 01:32:00,
2013-02-06 20:34:00,38.2,31.0,30.30,East,80,0.0,9.0,75,0.00,,,0.00,Wunderground v.1.15,2013-02-07 01:34:00,
2013-02-06 20:35:00,38.2,31.0,30.30,East,93,0.0,9.0,75,0.00,,,0.00,Wunderground v.1.15,2013-02-07 01:35:00,
2013-02-06 20:36:00,38.2,31.0,30.30,East,95,0.0,9.0,75,0.00,,,0.00,Wunderground v.1.15,2013-02-07 01:36:00,
2013-02-06 20:38:00,38.1,30.9,30.30,East,86,0.0,9.0,75,0.00,,,0.00,Wunderground v.1.15,2013-02-07 01:38:00,
2013-02-06 20:40:00,38.0,30.8,30.31,NE,47,0.0,9.0,75,0.00,,,0.00,Wunderground v.1.15,2013-02-07 01:40:00,
2013-02-06 20:42:00,38.0,30.8,30.31,East,90,0.0,9.0,75,0.00,,,0.00,Wunderground v.1.15,2013-02-07 01:42:00,
2013-02-06 20:44:00,38.0,31.1,30.30,East,90,0.0,9.0,76,0.00,,,0.00,Wunderground v.1.15,2013-02-07 01:44:00,
2013-02-06 20:47:00,37.9,31.0,30.30,ENE,76,1.0,9.0,76,0.00,,,0.00,Wunderground v.1.15,2013-02-07 01:47:00,
2013-02-06 20:49:00,37.9,31.0,30.30,East,86,1.0,9.0,76,0.00,,,0.00,Wunderground v.1.15,2013-02-07 01:49:00,
2013-02-06 20:50:00,37.8,30.9,30.30,ENE,66,1.0,9.0,76,0.00,,,0.00,Wunderground v.1.15,2013-02-07 01:50:00,
2013-02-06 20:51:00,37.8,30.9,30.30,NE,55,1.0,9.0,76,0.00,,,0.00,Wunderground v.1.15,2013-02-07 01:51:00,
2013-02-06 20:53:00,37.7,30.8,30.29,East,88,1.0,9.0,76,0.00,,,0.00,Wunderground v.1.15,2013-02-07 01:53:00,
2013-02-06 20:55:00,37.7,31.1,30.30,ENE,68,1.0,9.0,77,0.00,,,0.00,Wunderground v.1.15,2013-02-07 01:55:00,
2013-02-06 20:56:00,37.6,30.7,30.30,East,88,1.0,9.0,76,0.00,,,0.00,Wunderground v.1.15,2013-02-07 01:56:00,
2013-02-06 21:01:00,37.5,30.9,30.30,ENE,71,1.0,1.0,77,0.00,,,0.00,Wunderground v.1.15,2013-02-07 02:01:00,
2013-02-06 21:02:00,37.4,30.8,30.30,ENE,74,1.0,9.0,77,0.00,,,0.00,Wunderground v.1.15,2013-02-07 02:02:00,
2013-02-06 21:03:00,37.4,30.8,30.30,East,98,1.0,9.0,77,0.00,,,0.00,Wunderground v.1.15,2013-02-07 02:03:00,
2013-02-06 21:07:00,37.3,31.1,30.30,East,89,1.0,9.0,78,0.00,,,0.00,Wunderground v.1.15,2013-02-07 02:07:00,
2013-02-06 21:08:00,37.2,31.0,30.30,East,100,1.0,9.0,78,0.00,,,0.00,Wunderground v.1.15,2013-02-07 02:08:00,
2013-02-06 21:11:00,37.2,31.0,30.30,East,82,1.0,1.0,78,0.00,,,0.00,Wunderground v.1.15,2013-02-07 02:11:00,
2013-02-06 21:13:00,37.1,30.9,30.30,East,92,1.0,9.0,78,0.00,,,0.00,Wunderground v.1.15,2013-02-07 02:13:00,
2013-02-06 21:14:00,37.1,30.9,30.30,East,88,1.0,9.0,78,0.00,,,0.00,Wunderground v.1.15,2013-02-07 02:14:00,
2013-02-06 21:16:00,37.1,30.9,30.30,East,83,1.0,9.0,78,0.00,,,0.00,Wunderground v.1.15,2013-02-07 02:16:00,
2013-02-06 21:18:00,37.0,30.8,30.29,East,86,0.0,9.0,78,0.00,,,0.00,Wunderground v.1.15,2013-02-07 02:18:00,
2013-02-06 21:20:00,37.0,31.1,30.29,East,86,0.0,9.0,79,0.00,,,0.00,Wunderground v.1.15,2013-02-07 02:20:00,
2013-02-06 21:21:00,37.0,31.1,30.29,ESE,103,0.0,9.0,79,0.00,,,0.00,Wunderground v.1.15,2013-02-07 02:21:00,
2013-02-06 21:23:00,37.0,31.1,30.29,East,93,0.0,9.0,79,0.00,,,0.00,Wunderground v.1.15,2013-02-07 02:23:00,
2013-02-06 21:25:00,37.0,31.1,30.29,East,86,0.0,9.0,79,0.00,,,0.00,Wunderground v.1.15,2013-02-07 02:25:00,
2013-02-06 21:26:00,36.9,31.0,30.29,East,99,0.0,9.0,79,0.00,,,0.00,Wunderground v.1.15,2013-02-07 02:26:00,
2013-02-06 21:29:00,36.9,31.0,30.29,East,90,0.0,9.0,79,0.00,,,0.00,Wunderground v.1.15,2013-02-07 02:29:00,
2013-02-06 21:32:00,36.8,30.9,30.30,East,95,0.0,9.0,79,0.00,,,0.00,Wunderground v.1.15,2013-02-07 02:32:00,
2013-02-06 21:34:00,36.8,30.9,30.30,East,93,0.0,9.0,79,0.00,,,0.00,Wunderground v.1.15,2013-02-07 02:34:00,
2013-02-06 21:35:00,36.8,31.2,30.30,ESE,110,0.0,9.0,80,0.00,,,0.00,Wunderground v.1.15,2013-02-07 02:35:00,
2013-02-06 21:36:00,36.8,31.2,30.30,ESE,103,0.0,9.0,80,0.00,,,0.00,Wunderground v.1.15,2013-02-07 02:36:00,
2013-02-06 21:40:00,36.8,31.2,30.30,ESE,102,0.0,9.0,80,0.00,,,0.00,Wunderground v.1.15,2013-02-07 02:40:00,
2013-02-06 21:41:00,36.8,31.2,30.30,ENE,66,0.0,9.0,80,0.00,,,0.00,Wunderground v.1.15,2013-02-07 02:41:00,
2013-02-06 21:42:00,36.9,31.0,30.30,ESE,119,0.0,9.0,79,0.00,,,0.00,Wunderground v.1.15,2013-02-07 02:42:00,
2013-02-06 21:46:00,37.0,31.1,30.31,East,92,0.0,9.0,79,0.00,,,0.00,Wunderground v.1.15,2013-02-07 02:46:00,
2013-02-06 21:48:00,37.0,31.1,30.31,East,86,0.0,9.0,79,0.00,,,0.00,Wunderground v.1.15,2013-02-07 02:48:00,
2013-02-06 21:50:00,37.0,31.1,30.31,SE,130,0.0,9.0,79,0.00,,,0.00,Wunderground v.1.15,2013-02-07 02:50:00,
2013-02-06 21:52:00,37.0,31.1,30.31,ENE,63,0.0,9.0,79,0.00,,,0.00,Wunderground v.1.15,2013-02-07 02:52:00,
2013-02-06 21:53:00,37.0,31.1,30.31,East,90,0.0,9.0,79,0.00,,,0.00,Wunderground v.1.15,2013-02-07 02:53:00,
2013-02-06 21:55:00,37.0,31.1,30.31,East,86,0.0,9.0,79,0.00,,,0.00,Wunderground v.1.15,2013-02-07 02:55:00,
2013-02-06 21:57:00,37.1,31.2,30.32,NE,56,0.0,9.0,79,0.00,,,0.00,Wunderground v.1.15,2013-02-07 02:57:00,
2013-02-06 21:58:00,37.1,31.2,30.32,NE,56,0.0,9.0,79,0.00,,,0.00,Wunderground v.1.15,2013-02-07 02:58:00,
2013-02-06 22:01:00,37.0,31.1,30.33,East,82,0.0,9.0,79,0.00,,,0.00,Wunderground v.1.15,2013-02-07 03:01:00,
2013-02-06 22:03:00,37.1,31.2,30.33,ENE,69,0.0,9.0,79,0.00,,,0.00,Wunderground v.1.15,2013-02-07 03:03:00,
2013-02-06 22:04:00,37.1,31.2,30.33,ENE,69,0.0,9.0,79,0.00,,,0.00,Wunderground v.1.15,2013-02-07 03:04:00,
2013-02-06 22:07:00,37.1,31.2,30.32,East,79,0.0,9.0,79,0.00,,,0.00,Wunderground v.1.15,2013-02-07 03:07:00,
2013-02-06 22:08:00,37.1,31.2,30.32,ESE,103,0.0,9.0,79,0.00,,,0.00,Wunderground v.1.15,2013-02-07 03:08:00,
2013-02-06 22:09:00,37.1,31.2,30.32,ESE,103,0.0,9.0,79,0.00,,,0.00,Wunderground v.1.15,2013-02-07 03:09:00,
2013-02-06 22:11:00,37.1,31.2,30.32,ESE,104,0.0,9.0,79,0.00,,,0.00,Wunderground v.1.15,2013-02-07 03:11:00,
2013-02-06 22:13:00,37.1,31.2,30.32,ENE,74,0.0,9.0,79,0.00,,,0.00,Wunderground v.1.15,2013-02-07 03:13:00,
2013-02-06 22:15:00,37.0,31.1,30.32,ENE,65,0.0,9.0,79,0.00,,,0.00,Wunderground v.1.15,2013-02-07 03:15:00,
2013-02-06 22:16:00,37.0,31.1,30.32,ESE,103,0.0,9.0,79,0.00,,,0.00,Wunderground v.1.15,2013-02-07 03:16:00,
2013-02-06 22:18:00,37.0,31.1,30.32,ESE,111,0.0,9.0,79,0.00,,,0.00,Wunderground v.1.15,2013-02-07 03:18:00,
2013-02-06 22:21:00,37.0,31.1,30.32,East,101,0.0,9.0,79,0.00,,,0.00,Wunderground v.1.15,2013-02-07 03:21:00,
2013-02-06 22:22:00,37.0,31.1,30.32,East,96,0.0,9.0,79,0.00,,,0.00,Wunderground v.1.15,2013-02-07 03:22:00,
2013-02-06 22:26:00,37.0,31.1,30.32,ENE,73,0.0,9.0,79,0.00,,,0.00,Wunderground v.1.15,2013-02-07 03:26:00,
2013-02-06 22:27:00,37.0,31.1,30.32,East,92,0.0,9.0,79,0.00,,,0.00,Wunderground v.1.15,2013-02-07 03:27:00,
2013-02-06 22:29:00,37.0,31.1,30.32,East,89,0.0,9.0,79,0.00,,,0.00,Wunderground v.1.15,2013-02-07 03:29:00,
2013-02-06 22:30:00,37.0,31.1,30.32,East,89,0.0,9.0,79,0.00,,,0.00,Wunderground v.1.15,2013-02-07 03:30:00,
2013-02-06 22:33:00,37.0,31.1,30.32,ESE,102,0.0,9.0,79,0.00,,,0.00,Wunderground v.1.15,2013-02-07 03:33:00,
2013-02-06 22:36:00,36.9,31.0,30.32,East,98,0.0,9.0,79,0.00,,,0.00,Wunderground v.1.15,2013-02-07 03:36:00,
2013-02-06 22:37:00,36.9,31.3,30.32,ESE,111,0.0,9.0,80,0.00,,,0.00,Wunderground v.1.15,2013-02-07 03:37:00,
2013-02-06 22:40:00,36.9,31.3,30.32,East,88,0.0,9.0,80,0.00,,,0.00,Wunderground v.1.15,2013-02-07 03:40:00,
2013-02-06 22:42:00,36.9,31.3,30.31,ESE,109,0.0,9.0,80,0.00,,,0.00,Wunderground v.1.15,2013-02-07 03:42:00,
2013-02-06 22:43:00,36.9,31.3,30.31,East,101,0.0,9.0,80,0.00,,,0.00,Wunderground v.1.15,2013-02-07 03:43:00,
2013-02-06 22:47:00,36.8,31.2,30.31,ESE,107,0.0,9.0,80,0.00,,,0.00,Wunderground v.1.15,2013-02-07 03:47:00,
2013-02-06 22:49:00,36.8,31.2,30.31,East,99,0.0,9.0,80,0.00,,,0.00,Wunderground v.1.15,2013-02-07 03:49:00,
2013-02-06 22:51:00,36.8,31.2,30.31,ESE,106,0.0,9.0,80,0.00,,,0.00,Wunderground v.1.15,2013-02-07 03:51:00,
2013-02-06 22:56:00,36.7,31.1,30.31,East,98,0.0,9.0,80,0.00,,,0.00,Wunderground v.1.15,2013-02-07 03:56:00,
2013-02-06 22:57:00,36.7,31.1,30.31,ESE,102,0.0,9.0,80,0.00,,,0.00,Wunderground v.1.15,2013-02-07 03:57:00,
2013-02-06 22:58:00,36.7,31.1,30.31,ESE,113,0.0,9.0,80,0.00,,,0.00,Wunderground v.1.15,2013-02-07 03:58:00,
2013-02-06 22:59:00,36.7,31.1,30.31,East,98,0.0,9.0,80,0.00,,,0.00,Wunderground v.1.15,2013-02-07 03:59:00,
2013-02-06 23:02:00,36.6,31.0,30.30,ESE,109,0.0,9.0,80,0.00,,,0.00,Wunderground v.1.15,2013-02-07 04:02:00,
2013-02-06 23:03:00,36.6,31.0,30.30,ESE,113,0.0,9.0,80,0.00,,,0.00,Wunderground v.1.15,2013-02-07 04:03:00,
2013-02-06 23:04:00,36.6,31.0,30.30,East,87,0.0,9.0,80,0.00,,,0.00,Wunderground v.1.15,2013-02-07 04:04:00,
2013-02-06 23:06:00,36.5,30.9,30.30,ESE,106,0.0,9.0,80,0.00,,,0.00,Wunderground v.1.15,2013-02-07 04:06:00,
2013-02-06 23:07:00,36.5,31.2,30.30,ESE,106,0.0,9.0,81,0.00,,,0.00,Wunderground v.1.15,2013-02-07 04:07:00,
2013-02-06 23:09:00,36.5,31.2,30.30,East,99,0.0,9.0,81,0.00,,,0.00,Wunderground v.1.15,2013-02-07 04:09:00,
2013-02-06 23:11:00,36.4,31.1,30.30,ESE,105,0.0,9.0,81,0.00,,,0.00,Wunderground v.1.15,2013-02-07 04:11:00,
2013-02-06 23:12:00,36.4,31.1,30.30,ESE,102,0.0,9.0,81,0.00,,,0.00,Wunderground v.1.15,2013-02-07 04:12:00,
2013-02-06 23:16:00,36.3,31.0,30.30,East,94,0.0,9.0,81,0.00,,,0.00,Wunderground v.1.15,2013-02-07 04:16:00,
2013-02-06 23:17:00,36.3,31.0,30.30,ESE,102,0.0,9.0,81,0.00,,,0.00,Wunderground v.1.15,2013-02-07 04:17:00,
2013-02-06 23:18:00,36.2,30.9,30.30,East,94,0.0,9.0,81,0.00,,,0.00,Wunderground v.1.15,2013-02-07 04:18:00,
2013-02-06 23:21:00,36.2,30.9,30.30,ESE,109,0.0,9.0,81,0.00,,,0.00,Wunderground v.1.15,2013-02-07 04:21:00,
2013-02-06 23:23:00,36.2,30.9,30.30,ESE,115,0.0,9.0,81,0.00,,,0.00,Wunderground v.1.15,2013-02-07 04:23:00,
2013-02-06 23:25:00,36.2,30.9,30.30,ESE,107,0.0,9.0,81,0.00,,,0.00,Wunderground v.1.15,2013-02-07 04:25:00,
2013-02-06 23:26:00,36.2,30.9,30.30,East,98,0.0,9.0,81,0.00,,,0.00,Wunderground v.1.15,2013-02-07 04:26:00,
2013-02-06 23:29:00,36.2,30.9,30.30,ESE,119,0.0,9.0,81,0.00,,,0.00,Wunderground v.1.15,2013-02-07 04:29:00,
2013-02-06 23:30:00,36.2,30.9,30.30,East,92,0.0,9.0,81,0.00,,,0.00,Wunderground v.1.15,2013-02-07 04:30:00,
2013-02-06 23:31:00,36.2,30.9,30.30,ESE,104,0.0,9.0,81,0.00,,,0.00,Wunderground v.1.15,2013-02-07 04:31:00,
2013-02-06 23:34:00,36.2,31.2,30.29,ESE,105,0.0,9.0,82,0.00,,,0.00,Wunderground v.1.15,2013-02-07 04:34:00,
2013-02-06 23:36:00,36.2,30.9,30.29,East,100,0.0,9.0,81,0.00,,,0.00,Wunderground v.1.15,2013-02-07 04:36:00,
2013-02-06 23:39:00,36.1,30.8,30.29,East,97,0.0,9.0,81,0.00,,,0.00,Wunderground v.1.15,2013-02-07 04:39:00,
2013-02-06 23:40:00,36.1,30.8,30.29,ESE,109,0.0,9.0,81,0.00,,,0.00,Wunderground v.1.15,2013-02-07 04:40:00,
2013-02-06 23:43:00,36.1,31.1,30.29,East,92,0.0,9.0,82,0.00,,,0.00,Wunderground v.1.15,2013-02-07 04:43:00,
2013-02-06 23:44:00,36.1,31.1,30.29,East,88,0.0,9.0,82,0.00,,,0.00,Wunderground v.1.15,2013-02-07 04:44:00,
2013-02-06 23:45:00,36.1,31.1,30.29,East,98,0.0,9.0,82,0.00,,,0.00,Wunderground v.1.15,2013-02-07 04:45:00,
2013-02-06 23:46:00,36.1,31.1,30.29,East,98,0.0,9.0,82,0.00,,,0.00,Wunderground v.1.15,2013-02-07 04:46:00,
2013-02-06 23:50:00,36.0,31.0,30.28,East,101,0.0,9.0,82,0.00,,,0.00,Wunderground v.1.15,2013-02-07 04:50:00,
2013-02-06 23:51:00,36.0,31.0,30.28,ESE,103,0.0,9.0,82,0.00,,,0.00,Wunderground v.1.15,2013-02-07 04:51:00,
2013-02-06 23:52:00,36.0,31.0,30.28,ESE,108,0.0,9.0,82,0.00,,,0.00,Wunderground v.1.15,2013-02-07 04:52:00,
2013-02-06 23:53:00,36.0,31.0,30.28,ESE,107,0.0,9.0,82,0.00,,,0.00,Wunderground v.1.15,2013-02-07 04:53:00,
2013-02-06 23:57:00,36.0,31.0,30.28,East,98,0.0,9.0,82,0.00,,,0.00,Wunderground v.1.15,2013-02-07 04:57:00,
2013-02-06 23:59:00,36.0,31.0,30.28,East,94,0.0,9.0,82,0.00,,,0.00,Wunderground v.1.15,2013-02-07 04:59:00,